                ,  0.195,  0.292,  0.389,  0.486,  0.583,  0.680,  0.777,  0.874,  0.971,  1.068,  1.165,  1.262,  1.359,  1.456,  1.553,  1.651,  1.748,  1.845,  1.942,  2.039,  2.136,  2.233,  2.330,  2.427,  2.524,  2.621,  2.718,  2.815,  2.912,  3.009,  3.106,  3.203,  3.300,  3.397,  3.494,  3.591,  3.688,  3.785,  3.882,  3.979,  4.076,  4.173,  4.270,  4.367,  4.464,  4.561,  4.658,  4.755,  4.852,  4.950,  5.047,  5.144,  5.241,  5.338,  5.435,  5.532,  5.629,  5.726,  5.823,  5.920,  6.017,  6.114,  6.211,  6.308,  6.405,  6.502,  6.599,  6.696,  6.793,  6.890,  6.987,  7.084,  7.181,  7.278,  7.375,  7.472,  7.569,  7.666,  7.763,  7.860,  7.957,  8.054,  8.151,  8.249,  8.346,  8.443,  8.540,  8.637,  8.734,  8.831,  8.928,  9.025,  9.122,  9.219,  9.316,  9.413,  9.510,  9.607
2010/07/16 00:00,  999.0,  999.0,    0.4,    0.5,   -0.1,   -0.2,    0.0,   -0.2,   -0.3,    0.1,    0.2,   -0.1,   -0.0,   -0.9,   -1.6,   -1.3,   -1.1,   -1.0,   -1.0,   -1.2,   -1.3,   -1.3,   -1.1,   -0.6,   -0.2,    0.1,    0.4,    0.9,    0.3,   -0.4,   -0.3,    0.3,    0.9,    0.1,    0.2,   -0.2,    0.0,  999.0,  999.0,    1.2,    0.6,    1.6,    2.5,    2.5,    2.1,    1.6,    1.3,    1.1,    0.9,    1.3,  999.0,    1.8,    1.0,    1.4,    1.6,  999.0,  999.0,  999.0,  999.0,  999.0,  999.0,  999.0,  999.0,  999.0,  999.0,  999.0,  999.0,  999.0,  999.0,  999.0,  999.0,    3.1,  999.0,  999.0,  999.0,  999.0,  999.0,  999.0,  999.0,  999.0,  999.0,  999.0,  999.0,  999.0,  999.0,  999.0,  999.0,  999.0,  999.0,  999.0,  999.0,  999.0,  999.0,  999.0,  999.0,  999.0,  999.0,  999.0
2010/07/16 00:10,  999.0,   -0.0,  999.0,    0.6,  999.0,   -0.3,  999.0,  999.0,   -0.1,  999.0,    0.7,    0.7,    0.1,   -0.4,   -1.0,   -0.9,   -1.0,   -0.5,   -0.3,   -0.6,   -0.7,   -0.5,   -0.8,   -0.6,    0.2,   -0.0,    0.3,    0.6,   -0.4,   -0.8,   -1.2,   -0.3,    0.2,   -0.4,   -0.5,   -0.4,   -0.1,    0.2,    0.4,    0.2,    0.4,    1.6,    1.7,    1.1,    1.3,    1.3,    1.0,    1.0,    0.7,    1.6,  999.0,    1.9,    1.6,    1.5,    1.6,  999.0,  999.0,  999.0,  999.0,  999.0,  999.0,  999.0,  999.0,  999.0,  999.0,  999.0,  999.0,  999.0,  999.0,  999.0,  999.0,  999.0,  999.0,  999.0,  999.0,  999.0,  999.0,  999.0,  999.0,  999.0,  999.0,  999.0,  999.0,  999.0,  999.0,  999.0,  999.0,  999.0,  999.0,  999.0,  999.0,  999.0,  999.0,  999.0,  999.0,  999.0,  999.0,  999.0
2010/07/16 00:20,   -0.1,   -0.3,    0.6,    1.2,    0.4,   -0.1,    1.0,    0.2,    0.7,    0.4,    0.4,    0.1,   -0.1,   -0.8,   -1.2,   -1.1,   -1.2,   -1.1,   -1.6,   -1.3,   -1.0,   -0.8,   -0.8,   -0.7,   -0.8,   -0.7,   -0.5,   -0.4,   -0.9,   -1.2,   -1.5,   -1.2,    0.3,   -0.0,   -0.5,   -0.4,   -0.2,   -0.1,    0.6,    0.4,    0.9,    1.4,    1.4,    0.7,    0.9,    0.8,    1.2,  999.0,  999.0,  999.0,  999.0,  999.0,  999.0,    2.4,    2.3,  999.0,  999.0,  999.0,  999.0,  999.0,  999.0,  999.0,  999.0,  999.0,  999.0,  999.0,  999.0,  999.0,  999.0,  999.0,  999.0,  999.0,  999.0,  999.0,  999.0,  999.0,  999.0,  999.0,  999.0,  999.0,  999.0,  999.0,  999.0,  999.0,  999.0,  999.0,  999.0,  999.0,  999.0,  999.0,  999.0,  999.0,  999.0,  999.0,  999.0,  999.0,  999.0,  999.0
2010/07/16 00:30,   -0.1,  999.0,    0.2,    0.2,   -0.6,   -0.2,    0.2,   -0.2,   -0.1,    0.0,    0.3,    0.4,   -0.3,   -0.4,   -0.5,   -0.3,   -0.2,   -0.3,   -0.8,   -1.4,   -1.3,   -0.8,   -0.8,   -0.3,   -0.1,  999.0,  999.0,   -0.4,   -0.8,   -1.1,   -1.4,   -1.3,   -0.3,   -0.5,   -0.6,   -0.4,   -0.5,    0.1,    0.7,    1.1,    0.8,    1.4,    2.1,    1.4,    0.7,    1.0,    1.2,  999.0,  999.0,    1.9,  999.0,  999.0,  999.0,    2.9,    1.8,  999.0,  999.0,  999.0,  999.0,  999.0,  999.0,  999.0,  999.0,  999.0,  999.0,  999.0,  999.0,  999.0,  999.0,  999.0,  999.0,  999.0,  999.0,  999.0,  999.0,  999.0,  999.0,  999.0,  999.0,  999.0,  999.0,  999.0,  999.0,  999.0,  999.0,  999.0,  999.0,  999.0,  999.0,  999.0,  999.0,  999.0,  999.0,  999.0,  999.0,  999.0,  999.0,  999.0
2010/07/16 00:40,  999.0,  999.0,  999.0,    0.0,   -0.4,   -0.2,    0.3,   -0.2,   -0.2,   -0.3,    0.0,   -0.1,   -0.3,   -0.4,   -0.4,   -0.2,   -0.5,   -0.8,   -1.0,   -0.9,   -0.9,   -0.9,   -0.5,   -0.2,   -0.3,  999.0,  999.0,   -0.6,   -1.0,   -1.1,   -1.2,   -1.2,   -0.6,   -0.4,   -0.4,   -0.6,   -0.5,  999.0,   -0.1,    0.2,    0.3,    1.0,  999.0,  999.0,   -0.3,    0.5,    0.8,    1.2,    1.9,    1.8,  999.0,  999.0,  999.0,  999.0,  999.0,  999.0,  999.0,  999.0,  999.0,  999.0,  999.0,  999.0,  999.0,  999.0,  999.0,  999.0,  999.0,  999.0,  999.0,  999.0,  999.0,  999.0,  999.0,  999.0,  999.0,  999.0,  999.0,  999.0,  999.0,  999.0,  999.0,  999.0,  999.0,  999.0,  999.0,  999.0,  999.0,  999.0,  999.0,  999.0,  999.0,  999.0,  999.0,  999.0,  999.0,  999.0,  999.0,  999.0
2010/07/16 00:50,  999.0,    0.2,  999.0,    0.1,   -0.3,   -0.3,   -0.3,   -0.0,   -0.9,   -0.8,   -0.7,   -0.7,   -0.5,   -0.5,   -0.4,   -0.2,   -0.6,   -0.4,   -0.3,   -0.8,   -0.7,   -0.5,    0.2,    0.1,    0.4,  999.0,  999.0,   -0.4,   -0.7,   -0.8,   -0.7,   -0.5,   -0.6,   -0.5,   -0.3,    0.0,    0.0,   -0.5,   -0.0,    0.6,    0.6,    1.1,  999.0,  999.0,  999.0,   -0.0,   -0.1,    0.8,    1.5,    1.3,  999.0,  999.0,  999.0,  999.0,  999.0,  999.0,  999.0,  999.0,  999.0,  999.0,  999.0,  999.0,  999.0,  999.0,  999.0,  999.0,  999.0,  999.0,  999.0,  999.0,  999.0,  999.0,  999.0,  999.0,  999.0,  999.0,  999.0,  999.0,  999.0,  999.0,  999.0,  999.0,  999.0,  999.0,  999.0,  999.0,  999.0,  999.0,  999.0,  999.0,  999.0,  999.0,  999.0,  999.0,  999.0,  999.0,  999.0,  999.0
2010/07/16 01:00,    1.8,    0.5,    0.4,    0.6,    0.5,    0.2,   -0.3,   -0.2,   -1.2,   -0.7,   -0.9,   -0.5,   -0.3,   -0.6,    1.3,    1.6,   -0.3,    0.7,    1.6,    0.7,    0.6,    1.1,    0.4,   -0.5,   -0.6,  999.0,   -0.2,   -0.6,   -0.8,   -0.5,   -0.5,   -0.8,   -0.5,   -0.3,    0.1,   -2.9,    0.1,   -0.2,    0.1,  999.0,    0.2,  999.0,  999.0,  999.0,  999.0,  999.0,   -0.6,    0.1,    0.9,  999.0,  999.0,  999.0,  999.0,  999.0,  999.0,  999.0,  999.0,  999.0,  999.0,  999.0,  999.0,  999.0,  999.0,  999.0,  999.0,  999.0,  999.0,  999.0,  999.0,  999.0,  999.0,  999.0,  999.0,  999.0,  999.0,  999.0,  999.0,  999.0,  999.0,  999.0,  999.0,  999.0,  999.0,  999.0,  999.0,  999.0,  999.0,  999.0,  999.0,  999.0,  999.0,  999.0,  999.0,  999.0,  999.0,  999.0,  999.0,  999.0
2010/07/16 01:10,   -0.2,    0.9,    0.8,    1.1,    1.2,    0.7,  999.0,    0.3,   -0.5,   -0.6,   -0.6,   -0.1,   -0.3,    0.3,    0.4,   -0.1,    1.6,    1.1,    1.2,    0.7,    1.7,    2.3,    1.6,    1.8,    2.0,    2.7,    2.0,    0.6,    0.2,    0.2,    0.3,    0.3,   -0.2,   -0.5,   -3.8,   -3.4,   -3.8,  999.0,  999.0,  999.0,  999.0,  999.0,  999.0,  999.0,  999.0,  999.0,   -0.6,  999.0,   -0.3,  999.0,  999.0,  999.0,  999.0,  999.0,  999.0,  999.0,  999.0,  999.0,  999.0,  999.0,  999.0,  999.0,  999.0,  999.0,  999.0,  999.0,  999.0,  999.0,  999.0,  999.0,  999.0,  999.0,  999.0,  999.0,  999.0,  999.0,  999.0,  999.0,  999.0,  999.0,  999.0,  999.0,  999.0,  999.0,  999.0,  999.0,  999.0,  999.0,  999.0,  999.0,  999.0,  999.0,  999.0,  999.0,  999.0,  999.0,  999.0,  999.0
2010/07/16 01:20,    0.0,   -0.6,    0.1,    1.2,    1.2,    0.7,    1.0,    1.2,    1.1,   -0.0,   -0.3,   -0.1,   -0.1,   -0.2,   -0.4,    0.5,   -0.5,   -0.2,    0.5,    1.3,    1.4,    1.0,    0.9,    0.8,    1.4,    0.0,   -0.7,   -1.2,   -0.9,   -0.5,    0.0,   -0.1,   -0.3,   -0.2,    0.4,   -0.1,   -0.6,   -1.5,   -1.4,   -2.0,   -1.8,   -2.1,  999.0,  999.0,  999.0,  999.0,   -0.6,   -0.4,   -0.0,  999.0,  999.0,  999.0,  999.0,  999.0,  999.0,  999.0,  999.0,  999.0,  999.0,  999.0,  999.0,  999.0,  999.0,  999.0,  999.0,  999.0,  999.0,  999.0,  999.0,  999.0,  999.0,  999.0,  999.0,  999.0,  999.0,  999.0,  999.0,  999.0,  999.0,  999.0,  999.0,  999.0,  999.0,  999.0,  999.0,  999.0,  999.0,  999.0,  999.0,  999.0,  999.0,  999.0,  999.0,  999.0,  999.0,  999.0,  999.0,  999.0
2010/07/16 01:30,  999.0,    0.1,    0.4,    0.4,    0.7,    0.0,    0.3,    0.2,    0.3,   -0.2,    0.3,   -0.2,   -0.2,    0.1,    0.6,    0.9,    0.9,    0.4,    0.3,   -0.1,   -0.1,    0.3,   -0.0,   -0.3,   -1.1,   -1.0,   -0.9,   -1.2,   -1.2,   -0.3,   -0.2,   -0.1,   -0.4,   -1.0,   -1.7,   -2.1,   -3.1,   -3.1,   -2.9,   -2.7,   -2.5,   -1.8,  999.0,  999.0,  999.0,  999.0,   -0.6,   -0.7,    0.1,  999.0,  999.0,  999.0,  999.0,  999.0,  999.0,  999.0,  999.0,  999.0,  999.0,  999.0,  999.0,  999.0,  999.0,  999.0,  999.0,  999.0,  999.0,  999.0,  999.0,  999.0,  999.0,  999.0,  999.0,  999.0,  999.0,  999.0,  999.0,  999.0,  999.0,  999.0,  999.0,  999.0,  999.0,  999.0,  999.0,  999.0,  999.0,  999.0,  999.0,  999.0,  999.0,  999.0,  999.0,  999.0,  999.0,  999.0,  999.0,  999.0
2010/07/16 01:40,   -0.2,    0.2,  999.0,    0.7,    1.0,    0.5,    0.5,    1.1,    1.3,    1.1,    1.0,    0.6,    0.4,    0.6,    0.6,    0.4,    0.6,    0.8,    0.8,    1.1,    1.2,    0.9,    0.7,    0.0,   -0.4,   -1.1,   -1.7,   -1.8,   -1.2,   -0.9,   -1.2,   -1.8,   -1.8,   -2.4,   -2.9,   -3.4,   -3.0,   -2.8,   -3.0,   -2.4,   -2.1,  999.0,  999.0,  999.0,  999.0,  999.0,   -0.7,   -0.7,  999.0,  999.0,  999.0,  999.0,  999.0,  999.0,  999.0,  999.0,  999.0,  999.0,  999.0,  999.0,  999.0,  999.0,  999.0,  999.0,  999.0,  999.0,  999.0,  999.0,  999.0,  999.0,  999.0,  999.0,  999.0,  999.0,  999.0,  999.0,  999.0,  999.0,  999.0,  999.0,  999.0,  999.0,  999.0,  999.0,  999.0,  999.0,  999.0,  999.0,  999.0,  999.0,  999.0,  999.0,  999.0,  999.0,  999.0,  999.0,  999.0,  999.0
2010/07/16 01:50,   -0.6,    0.1,  999.0,    0.7,    0.3,    0.5,    1.6,    1.3,    1.1,    1.2,    1.1,    0.4,   -0.3,    0.5,    0.1,    0.5,   -0.1,    0.2,    0.7,    0.9,    1.1,    0.9,    0.4,   -0.2,   -0.8,   -1.8,   -2.4,   -2.1,   -1.3,   -1.8,   -2.5,   -2.9,   -2.8,   -3.1,   -3.2,   -3.3,   -2.9,   -2.5,   -2.4,   -1.9,   -1.5,   -0.8,  999.0,  999.0,  999.0,  999.0,    0.4,  999.0,  999.0,  999.0,  999.0,    1.9,  999.0,  999.0,  999.0,  999.0,  999.0,  999.0,  999.0,  999.0,  999.0,  999.0,  999.0,  999.0,  999.0,  999.0,  999.0,  999.0,  999.0,  999.0,  999.0,  999.0,  999.0,  999.0,  999.0,  999.0,  999.0,  999.0,  999.0,  999.0,  999.0,  999.0,  999.0,  999.0,  999.0,  999.0,  999.0,  999.0,  999.0,  999.0,  999.0,  999.0,  999.0,  999.0,  999.0,  999.0,  999.0,  999.0
2010/07/16 02:00,    0.0,   -0.3,    0.5,    0.1,    0.3,    0.6,    0.9,    1.6,    1.5,    1.6,    0.9,    0.5,    0.5,    0.6,    0.8,    1.0,    0.7,    0.5,    0.5,    0.6,    0.5,    0.4,   -0.7,   -1.0,   -1.2,   -1.8,   -2.2,   -1.5,   -1.1,   -1.6,   -1.7,   -1.8,   -2.2,   -2.6,   -2.8,   -2.5,   -2.2,   -1.7,   -1.5,   -1.1,   -0.7,    0.2,  999.0,    1.5,  999.0,  999.0,    0.3,  999.0,  999.0,  999.0,  999.0,  999.0,  999.0,  999.0,   -0.1,    0.1,  999.0,  999.0,  999.0,  999.0,  999.0,  999.0,  999.0,  999.0,  999.0,  999.0,  999.0,  999.0,  999.0,  999.0,  999.0,  999.0,  999.0,  999.0,  999.0,  999.0,  999.0,  999.0,  999.0,  999.0,  999.0,  999.0,  999.0,  999.0,  999.0,  999.0,  999.0,  999.0,  999.0,  999.0,  999.0,  999.0,  999.0,  999.0,  999.0,  999.0,  999.0,  999.0
2010/07/16 02:10,   -0.1,   -0.2,    0.5,    0.7,    0.7,    1.2,  999.0,    1.4,  999.0,    1.8,    1.4,    0.5,    0.6,    0.4,    0.5,    0.8,    1.2,    0.5,    0.8,    0.8,    0.3,    0.4,   -0.1,   -0.3,   -0.4,   -1.2,   -1.4,   -1.4,   -1.7,   -1.6,   -1.7,   -2.0,   -2.2,   -2.3,   -1.6,   -1.4,   -1.3,   -1.4,   -0.7,   -1.1,   -0.4,  999.0,  999.0,  999.0,  999.0,   -0.5,   -0.7,   -0.6,  999.0,  999.0,  999.0,  999.0,  999.0,  999.0,   -0.2,    0.0,  999.0,  999.0,  999.0,  999.0,  999.0,  999.0,  999.0,  999.0,  999.0,  999.0,  999.0,  999.0,  999.0,  999.0,  999.0,  999.0,  999.0,  999.0,  999.0,  999.0,  999.0,  999.0,  999.0,  999.0,  999.0,  999.0,  999.0,  999.0,  999.0,  999.0,  999.0,  999.0,  999.0,  999.0,  999.0,  999.0,  999.0,  999.0,  999.0,  999.0,  999.0,  999.0
2010/07/16 02:20,   -0.6,  999.0,  999.0,    1.0,    0.8,  999.0,    1.1,    1.3,    1.4,    1.2,    1.1,    0.5,    0.2,   -0.3,   -0.8,   -0.2,   -0.1,   -0.5,   -0.6,   -0.1,    0.2,    0.4,    0.2,   -0.2,   -0.3,   -0.6,   -1.0,   -1.0,   -1.5,   -2.0,   -2.3,   -2.3,   -2.1,   -2.1,   -1.6,   -1.5,   -1.0,    0.4,    0.3,    0.5,    0.7,    1.2,    0.6,   -0.3,   -0.6,   -0.9,   -0.5,   -0.1,    0.1,    0.5,    0.6,  999.0,    0.2,    0.8,  999.0,  999.0,  999.0,  999.0,  999.0,  999.0,  999.0,  999.0,  999.0,  999.0,  999.0,  999.0,  999.0,  999.0,  999.0,  999.0,  999.0,  999.0,  999.0,  999.0,  999.0,  999.0,  999.0,  999.0,  999.0,  999.0,  999.0,  999.0,  999.0,  999.0,  999.0,  999.0,  999.0,  999.0,  999.0,  999.0,  999.0,  999.0,  999.0,  999.0,  999.0,  999.0,  999.0,  999.0
2010/07/16 02:30,   -0.1,  999.0,    0.2,    1.1,    1.1,    0.6,    1.5,    1.2,  999.0,  999.0,  999.0,    0.3,   -0.0,   -0.1,   -0.1,   -0.1,  999.0,   -1.7,   -1.3,   -1.0,   -0.7,   -1.9,   -1.1,   -1.8,   -3.9,   -3.2,   -3.0,   -3.1,   -3.7,   -5.4,   -4.3,   -6.3,   -5.3,   -6.5,   -5.3,   -5.2,   -4.4,   -3.3,   -3.4,   -2.2,   -2.6,   -0.7,   -1.2,   -2.5,   -2.4,   -3.6,   -1.9,   -1.9,   -1.6,   -1.7,   -1.0,   -0.4,    0.1,    0.3,    0.6,    0.3,    0.0,    0.3,    0.0,    0.5,    0.4,  999.0,    0.4,    0.4,    0.8,    1.0,  999.0,  999.0,  999.0,  999.0,  999.0,  999.0,  999.0,  999.0,  999.0,  999.0,  999.0,  999.0,  999.0,  999.0,  999.0,  999.0,  999.0,  999.0,  999.0,  999.0,  999.0,  999.0,  999.0,  999.0,  999.0,  999.0,  999.0,  999.0,  999.0,  999.0,  999.0,  999.0
2010/07/16 02:40,   -1.8,   -0.4,    0.8,    1.5,    1.8,    1.1,    1.6,    1.9,    3.0,    1.9,    2.0,    2.0,    2.8,    2.0,    1.4,    1.0,   -0.3,    0.1,    0.7,   -0.7,   -0.2,   -0.6,   -1.2,   -0.6,   -2.3,   -2.8,   -2.5,    0.4,   -0.3,   -1.4,   -0.3,    0.7,    2.0,    0.5,    4.2,    1.9,    2.6,   -2.0,    1.1,    1.9,   -0.5,    1.5,    1.3,    1.4,   -2.4,   -2.7,   -7.1,   -5.3,   -4.5,   -2.8,   -2.1,   -1.9,   -1.6,   -1.1,   -1.5,   -2.0,   -2.4,   -1.8,   -1.0,   -0.3,    0.3,    0.5,    0.7,    1.1,    1.8,  999.0,    2.0,  999.0,  999.0,  999.0,  999.0,  999.0,  999.0,  999.0,  999.0,  999.0,  999.0,  999.0,  999.0,  999.0,  999.0,  999.0,  999.0,  999.0,  999.0,  999.0,  999.0,  999.0,  999.0,  999.0,  999.0,  999.0,  999.0,  999.0,  999.0,  999.0,  999.0,  999.0
2010/07/16 02:50,   -2.4,   -0.6,    0.6,    0.6,    0.8,   -0.1,    0.5,    0.4,    0.4,   -0.0,   -0.5,   -1.3,   -2.1,   -2.3,   -1.9,   -2.2,   -1.6,   -1.7,   -2.2,   -1.6,   -1.1,    2.5,    3.1,    2.1,    0.6,    0.2,    1.6,    1.5,    0.5,   -1.7,   -0.1,    0.3,    2.5,    1.7,    5.6,    4.1,    5.4,  999.0,    7.4,  999.0,  999.0,  999.0,    9.4,  999.0,  999.0,  999.0,  999.0,    5.3,    4.4,    3.6,    2.7,    2.7,    1.5,    1.5,    1.4,    1.3,    1.2,    1.5,    1.3,    1.5,    1.3,    1.2,    1.2,    1.9,    1.8,  999.0,    2.0,    2.4,    1.9,  999.0,  999.0,  999.0,  999.0,  999.0,  999.0,  999.0,  999.0,  999.0,  999.0,  999.0,  999.0,  999.0,  999.0,  999.0,  999.0,  999.0,  999.0,  999.0,  999.0,  999.0,  999.0,  999.0,  999.0,  999.0,  999.0,  999.0,  999.0,  999.0
2010/07/16 03:00,  999.0,  999.0,  999.0,  999.0,  999.0,    3.3,    7.4,    4.9,    3.8,    2.1,    1.4,    1.1,    1.2,    1.4,   -0.9,    0.2,    0.2,   -1.2,    0.4,    0.2,    0.9,    1.5,    1.1,    1.8,    1.5,    1.1,   -0.6,   -2.9,   -1.7,   -0.8,    1.1,    1.8,    2.1,    2.9,    2.0,    0.9,   -0.2,    0.7,  999.0,    1.0,    1.2,   -1.2,   -0.4,    0.3,    2.1,    2.1,    2.0,    1.9,  999.0,    1.3,    1.0,   -0.2,    0.3,    0.6,    0.8,  999.0,  999.0,    1.6,    0.8,    0.8,    1.0,  999.0,    1.0,    1.2,    1.6,    1.9,  999.0,  999.0,  999.0,  999.0,  999.0,  999.0,  999.0,  999.0,  999.0,  999.0,  999.0,  999.0,  999.0,  999.0,  999.0,  999.0,  999.0,  999.0,  999.0,  999.0,  999.0,  999.0,  999.0,  999.0,  999.0,  999.0,  999.0,  999.0,  999.0,  999.0,  999.0,  999.0
2010/07/16 03:10,   -0.3,   -0.4,  999.0,    0.7,  999.0,    0.2,    0.7,    0.8,    0.4,    0.4,    0.2,    0.3,   -0.6,   -0.2,   -0.9,   -0.9,   -0.5,   -0.9,   -0.5,   -0.6,   -0.8,   -1.0,   -1.3,   -1.1,   -0.9,   -1.9,   -2.9,   -3.0,   -2.0,   -1.6,   -1.2,   -0.3,   -0.1,   -0.2,   -0.7,   -0.1,    0.4,    0.3,    0.2,    0.1,    0.1,   -0.6,   -0.5,    0.1,    0.8,    1.3,    1.7,  999.0,    1.1,    1.6,    1.3,    1.1,    1.7,  999.0,    1.4,  999.0,  999.0,  999.0,  999.0,    1.2,  999.0,  999.0,  999.0,  999.0,  999.0,  999.0,  999.0,  999.0,  999.0,  999.0,  999.0,  999.0,  999.0,  999.0,  999.0,  999.0,  999.0,  999.0,  999.0,  999.0,  999.0,  999.0,  999.0,  999.0,  999.0,  999.0,  999.0,  999.0,  999.0,  999.0,  999.0,  999.0,  999.0,  999.0,  999.0,  999.0,  999.0,  999.0
2010/07/16 03:20,  999.0,  999.0,   -0.0,    0.4,    0.5,    0.0,    0.2,    0.7,  999.0,  999.0,    0.2,   -0.2,   -0.1,   -0.0,   -0.6,   -0.7,   -0.2,   -0.4,   -0.9,   -0.6,   -0.4,   -0.9,   -0.7,   -0.5,   -1.3,   -2.1,   -2.6,   -2.0,   -2.2,   -2.1,   -1.9,   -0.9,   -1.2,   -1.4,   -0.5,    0.2,    0.5,    1.2,    1.0,    0.5,    0.6,    1.0,    1.0,    1.6,    1.5,    1.4,  999.0,  999.0,  999.0,    1.9,  999.0,    1.5,    1.8,  999.0,  999.0,  999.0,  999.0,  999.0,  999.0,  999.0,  999.0,  999.0,  999.0,  999.0,  999.0,  999.0,  999.0,  999.0,  999.0,  999.0,  999.0,  999.0,  999.0,  999.0,  999.0,  999.0,  999.0,  999.0,  999.0,  999.0,  999.0,  999.0,  999.0,  999.0,  999.0,  999.0,  999.0,  999.0,  999.0,  999.0,  999.0,  999.0,  999.0,  999.0,  999.0,  999.0,  999.0,  999.0
2010/07/16 03:30,  999.0,   -0.6,  999.0,    0.1,    0.5,  999.0,    0.4,    0.2,    0.3,    0.3,    0.1,   -0.2,   -0.3,   -0.7,   -1.1,   -0.9,   -0.4,  999.0,   -0.4,   -0.5,   -0.8,   -0.9,   -1.1,   -1.5,   -2.1,   -2.1,   -2.3,   -2.5,   -1.9,   -2.0,   -1.5,   -0.8,   -1.0,   -1.6,   -0.6,    0.3,    1.2,  999.0,  999.0,  999.0,    2.6,    2.3,    2.0,    1.6,    1.5,  999.0,  999.0,  999.0,    2.3,  999.0,  999.0,  999.0,  999.0,  999.0,  999.0,  999.0,  999.0,  999.0,    2.5,    3.2,  999.0,  999.0,  999.0,  999.0,  999.0,  999.0,  999.0,  999.0,  999.0,  999.0,  999.0,  999.0,  999.0,  999.0,  999.0,  999.0,  999.0,  999.0,  999.0,  999.0,  999.0,  999.0,  999.0,  999.0,  999.0,  999.0,  999.0,  999.0,  999.0,  999.0,  999.0,  999.0,  999.0,  999.0,  999.0,  999.0,  999.0,    1.6
2010/07/16 03:40,  999.0,   -0.1,   -1.6,   -0.4,    0.0,   -0.2,    0.1,  999.0,  999.0,    0.4,    0.1,    0.4,   -0.0,   -0.8,   -1.7,   -1.4,   -1.0,   -0.6,   -0.3,   -0.5,   -0.7,   -0.9,   -1.6,   -2.3,   -2.2,   -2.0,   -2.3,   -1.8,   -1.8,   -1.3,   -0.9,   -0.5,   -1.0,   -0.3,   -0.5,    0.5,    1.3,  999.0,  999.0,  999.0,  999.0,  999.0,    2.0,    1.8,    1.2,    1.0,    1.1,  999.0,  999.0,    1.1,  999.0,  999.0,  999.0,  999.0,  999.0,  999.0,  999.0,    1.8,  999.0,  999.0,  999.0,  999.0,  999.0,  999.0,  999.0,  999.0,  999.0,  999.0,  999.0,  999.0,  999.0,  999.0,  999.0,  999.0,  999.0,  999.0,  999.0,  999.0,  999.0,  999.0,  999.0,  999.0,  999.0,  999.0,  999.0,  999.0,  999.0,  999.0,  999.0,  999.0,  999.0,  999.0,  999.0,  999.0,  999.0,  999.0,  999.0,  999.0
2010/07/16 03:50,  999.0,  999.0,  999.0,    0.1,   -0.4,    0.3,  999.0,    1.2,    1.3,    0.5,    0.7,    0.5,    0.3,   -1.0,  999.0,   -2.0,   -1.5,   -0.9,   -0.4,   -0.4,   -0.7,   -1.3,   -2.0,   -2.0,   -1.7,   -1.7,   -2.1,   -1.8,   -2.1,   -1.8,   -1.7,   -1.4,   -1.4,   -1.6,   -1.3,   -0.1,    0.9,    1.1,    1.9,    2.1,  999.0,  999.0,    1.6,  999.0,    0.7,    1.0,    0.9,    0.9,    1.3,  999.0,  999.0,  999.0,  999.0,  999.0,  999.0,  999.0,  999.0,    1.7,  999.0,  999.0,  999.0,  999.0,  999.0,  999.0,  999.0,  999.0,  999.0,  999.0,  999.0,  999.0,  999.0,  999.0,  999.0,  999.0,  999.0,  999.0,  999.0,  999.0,  999.0,  999.0,  999.0,  999.0,  999.0,  999.0,  999.0,  999.0,  999.0,  999.0,  999.0,  999.0,  999.0,  999.0,  999.0,  999.0,  999.0,  999.0,  999.0,  999.0
2010/07/16 04:00,  999.0,  999.0,  999.0,  999.0,  999.0,  999.0,    0.3,  999.0,    0.5,    0.2,    0.0,    0.2,   -0.6,   -2.3,   -2.5,   -1.9,   -1.7,   -1.4,   -1.2,   -1.1,   -0.8,   -1.7,   -2.1,   -1.7,   -1.3,   -1.3,   -1.6,   -1.6,   -2.0,   -2.2,   -2.0,   -1.9,   -1.5,   -1.9,   -1.4,   -0.2,    0.8,    1.2,    1.9,    1.9,    1.9,    1.4,    1.3,    1.2,    1.2,    1.6,    1.7,  999.0,  999.0,  999.0,  999.0,  999.0,  999.0,  999.0,  999.0,  999.0,  999.0,  999.0,  999.0,  999.0,  999.0,  999.0,  999.0,  999.0,  999.0,  999.0,  999.0,  999.0,  999.0,  999.0,  999.0,  999.0,  999.0,  999.0,  999.0,  999.0,  999.0,  999.0,  999.0,  999.0,  999.0,  999.0,  999.0,  999.0,  999.0,  999.0,  999.0,  999.0,  999.0,  999.0,  999.0,  999.0,  999.0,  999.0,  999.0,  999.0,  999.0,  999.0
2010/07/16 04:10,  999.0,   -2.3,   -1.1,  999.0,    0.1,    0.5,  999.0,  999.0,  999.0,  999.0,    0.6,    0.6,   -0.2,   -2.0,   -2.1,   -2.1,   -1.6,   -1.3,   -1.3,   -1.3,   -1.5,   -1.7,   -1.6,   -1.3,   -1.4,   -1.5,   -2.1,   -2.3,   -2.5,   -2.4,   -2.4,   -2.5,   -2.1,   -1.9,   -0.8,    0.2,    0.9,    1.3,    1.6,    2.0,    0.9,    1.6,  999.0,  999.0,  999.0,  999.0,  999.0,  999.0,  999.0,  999.0,    0.4,    0.8,  999.0,  999.0,  999.0,  999.0,  999.0,  999.0,  999.0,  999.0,  999.0,  999.0,  999.0,  999.0,  999.0,  999.0,  999.0,  999.0,  999.0,  999.0,  999.0,  999.0,  999.0,  999.0,  999.0,  999.0,  999.0,  999.0,  999.0,  999.0,  999.0,  999.0,  999.0,  999.0,  999.0,  999.0,  999.0,  999.0,  999.0,  999.0,  999.0,  999.0,  999.0,  999.0,  999.0,  999.0,  999.0,  999.0
2010/07/16 04:20,   -3.0,  999.0,  999.0,    0.1,    0.2,    0.2,  999.0,  999.0,  999.0,    0.6,  999.0,   -0.0,   -1.4,   -2.0,   -2.3,   -1.9,   -1.8,   -1.4,   -1.5,   -1.7,   -1.9,   -1.3,   -1.1,   -1.3,   -1.1,   -1.7,   -2.2,   -2.6,   -2.8,   -2.7,   -2.4,   -2.1,   -1.6,   -1.5,    0.1,    0.4,    0.9,    1.0,  999.0,  999.0,  999.0,    1.1,  999.0,  999.0,  999.0,  999.0,  999.0,  999.0,  999.0,  999.0,  999.0,    0.4,  999.0,  999.0,  999.0,  999.0,    1.6,    2.0,  999.0,  999.0,  999.0,  999.0,  999.0,  999.0,  999.0,  999.0,  999.0,  999.0,  999.0,  999.0,  999.0,  999.0,  999.0,  999.0,  999.0,  999.0,  999.0,  999.0,  999.0,  999.0,  999.0,  999.0,  999.0,  999.0,  999.0,  999.0,  999.0,  999.0,  999.0,  999.0,  999.0,  999.0,  999.0,  999.0,  999.0,  999.0,  999.0,  999.0
2010/07/16 04:30,   -1.4,  999.0,    0.3,    0.5,    0.4,    0.6,    0.5,  999.0,    0.6,    0.7,    0.6,   -0.8,   -1.8,   -1.8,   -1.9,   -1.6,   -1.4,   -1.1,   -1.0,   -1.0,   -1.2,   -0.7,   -0.2,   -1.0,   -0.7,   -1.2,   -1.6,   -1.6,   -1.7,   -1.8,   -1.7,   -1.4,   -1.1,   -1.1,   -1.0,    0.1,    0.4,    0.4,    0.7,  999.0,  999.0,    0.5,    0.9,  999.0,  999.0,  999.0,  999.0,  999.0,  999.0,  999.0,  999.0,  999.0,  999.0,  999.0,  999.0,  999.0,    1.9,  999.0,  999.0,  999.0,  999.0,  999.0,  999.0,  999.0,  999.0,  999.0,  999.0,  999.0,  999.0,  999.0,  999.0,  999.0,  999.0,  999.0,  999.0,  999.0,  999.0,  999.0,  999.0,  999.0,  999.0,  999.0,  999.0,  999.0,  999.0,  999.0,  999.0,  999.0,  999.0,  999.0,  999.0,  999.0,  999.0,  999.0,  999.0,  999.0,  999.0,  999.0
2010/07/16 04:40,  999.0,  999.0,   -0.6,    0.5,    0.5,    0.4,    0.6,    0.9,    0.8,  999.0,  999.0,   -0.8,   -1.6,   -1.8,   -1.8,   -1.8,   -1.8,   -1.1,   -1.2,  999.0,   -1.1,   -0.6,   -0.2,   -0.2,   -0.7,   -0.9,   -1.5,  999.0,   -2.0,   -2.1,   -1.7,   -1.8,   -1.4,   -1.3,   -1.0,    0.3,    0.2,    0.2,  999.0,  999.0,  999.0,  999.0,  999.0,    0.8,    0.7,  999.0,  999.0,  999.0,  999.0,  999.0,  999.0,  999.0,  999.0,    1.2,  999.0,  999.0,  999.0,  999.0,  999.0,  999.0,  999.0,  999.0,  999.0,  999.0,  999.0,  999.0,  999.0,  999.0,  999.0,  999.0,  999.0,  999.0,  999.0,  999.0,  999.0,  999.0,  999.0,  999.0,  999.0,  999.0,  999.0,  999.0,  999.0,  999.0,  999.0,  999.0,  999.0,  999.0,  999.0,  999.0,  999.0,  999.0,  999.0,  999.0,  999.0,  999.0,  999.0,  999.0
2010/07/16 04:50,  999.0,  999.0,    0.2,    0.4,  999.0,    0.4,  999.0,  999.0,    1.3,    1.3,    0.9,   -0.0,   -1.0,   -1.1,   -1.0,   -1.5,   -1.9,   -1.8,   -1.3,   -1.3,   -1.2,   -0.9,   -0.2,   -0.3,   -1.0,   -1.1,   -1.7,  999.0,   -2.0,   -2.3,   -2.0,   -2.0,   -1.7,   -1.2,   -1.5,   -0.3,    0.3,    0.3,  999.0,  999.0,  999.0,    0.9,  999.0,  999.0,    0.5,  999.0,  999.0,  999.0,    0.6,    1.0,  999.0,  999.0,    1.2,    1.3,  999.0,  999.0,  999.0,  999.0,  999.0,  999.0,  999.0,  999.0,  999.0,  999.0,  999.0,  999.0,  999.0,  999.0,  999.0,  999.0,  999.0,  999.0,  999.0,  999.0,  999.0,  999.0,  999.0,  999.0,  999.0,  999.0,  999.0,  999.0,  999.0,  999.0,  999.0,  999.0,  999.0,  999.0,  999.0,  999.0,  999.0,  999.0,  999.0,  999.0,  999.0,  999.0,  999.0,  999.0
2010/07/16 05:00,   -2.6,  999.0,  999.0,  999.0,  999.0,  999.0,  999.0,  999.0,    1.2,    1.2,    0.3,   -0.8,   -0.9,   -0.9,   -1.1,   -1.4,   -1.5,   -1.5,   -1.4,   -1.5,   -1.7,   -0.8,   -0.1,   -0.6,   -1.0,   -1.5,   -2.2,  999.0,   -2.1,   -2.3,   -1.9,   -1.8,  999.0,   -1.0,   -0.6,  999.0,  999.0,  999.0,    1.2,  999.0,  999.0,  999.0,    0.3,  999.0,  999.0,  999.0,    2.0,  999.0,  999.0,    1.2,    1.8,  999.0,    0.9,    1.2,    1.5,  999.0,  999.0,  999.0,  999.0,  999.0,  999.0,  999.0,  999.0,  999.0,  999.0,  999.0,  999.0,  999.0,  999.0,  999.0,  999.0,  999.0,  999.0,  999.0,  999.0,  999.0,  999.0,  999.0,  999.0,  999.0,  999.0,  999.0,  999.0,  999.0,  999.0,  999.0,  999.0,  999.0,  999.0,  999.0,  999.0,  999.0,  999.0,  999.0,  999.0,  999.0,  999.0,  999.0
2010/07/16 05:10,  999.0,  999.0,  999.0,  999.0,  999.0,  999.0,    1.1,    0.7,  999.0,    0.8,    0.1,   -0.4,   -0.6,   -0.1,   -1.0,   -1.7,   -1.5,   -1.1,   -0.8,   -1.0,   -1.0,   -0.7,   -0.7,   -1.3,   -1.6,   -1.7,   -2.1,   -1.5,   -1.2,   -1.6,   -1.4,   -1.4,   -0.7,   -0.7,   -0.3,  999.0,  999.0,  999.0,  999.0,    1.1,    1.3,  999.0,  999.0,  999.0,    1.5,    2.0,    2.2,    2.1,  999.0,  999.0,  999.0,  999.0,  999.0,  999.0,  999.0,  999.0,  999.0,  999.0,  999.0,  999.0,  999.0,    1.8,  999.0,    2.2,  999.0,  999.0,  999.0,  999.0,  999.0,  999.0,  999.0,  999.0,  999.0,  999.0,  999.0,  999.0,  999.0,  999.0,  999.0,  999.0,  999.0,  999.0,  999.0,  999.0,  999.0,  999.0,  999.0,  999.0,  999.0,  999.0,  999.0,  999.0,  999.0,  999.0,  999.0,  999.0,  999.0,  999.0
2010/07/16 05:20,  999.0,  999.0,  999.0,  999.0,  999.0,  999.0,  999.0,  999.0,  999.0,  999.0,   -0.9,    0.4,    0.6,   -0.5,  999.0,   -1.4,   -1.0,   -1.1,   -0.6,   -0.7,   -0.5,   -0.4,   -0.7,   -0.9,   -1.1,   -1.5,   -1.4,  999.0,   -1.2,   -1.9,   -1.3,  999.0,  999.0,   -0.5,    0.5,  999.0,  999.0,  999.0,  999.0,    0.7,  999.0,  999.0,  999.0,    0.9,    1.6,    1.7,  999.0,  999.0,    1.0,    1.2,  999.0,  999.0,  999.0,  999.0,  999.0,  999.0,  999.0,  999.0,  999.0,  999.0,  999.0,    2.5,    2.3,    2.8,  999.0,  999.0,  999.0,  999.0,  999.0,  999.0,  999.0,  999.0,  999.0,  999.0,  999.0,  999.0,  999.0,  999.0,  999.0,  999.0,  999.0,  999.0,  999.0,  999.0,  999.0,  999.0,  999.0,  999.0,  999.0,  999.0,  999.0,  999.0,  999.0,  999.0,  999.0,  999.0,  999.0,  999.0
2010/07/16 05:30,  999.0,  999.0,  999.0,  999.0,  999.0,  999.0,  999.0,  999.0,  999.0,  999.0,  999.0,  999.0,  999.0,  999.0,  999.0,   -0.2,  999.0,   -2.2,   -1.2,   -0.7,   -0.7,   -0.7,   -1.1,   -1.1,   -1.2,   -1.5,   -0.8,   -0.9,   -1.3,   -1.4,   -1.0,   -0.8,   -1.0,   -1.1,   -0.3,  999.0,  999.0,  999.0,  999.0,  999.0,  999.0,  999.0,  999.0,  999.0,  999.0,  999.0,  999.0,  999.0,  999.0,    0.5,  999.0,  999.0,  999.0,  999.0,  999.0,  999.0,  999.0,  999.0,  999.0,  999.0,  999.0,  999.0,    2.7,  999.0,  999.0,  999.0,  999.0,  999.0,  999.0,  999.0,  999.0,  999.0,  999.0,  999.0,  999.0,  999.0,  999.0,  999.0,  999.0,  999.0,  999.0,  999.0,  999.0,  999.0,  999.0,  999.0,  999.0,  999.0,  999.0,  999.0,  999.0,  999.0,  999.0,  999.0,  999.0,  999.0,  999.0,  999.0
2010/07/16 05:40,  999.0,  999.0,  999.0,  999.0,    0.6,    0.5,    0.0,   -0.3,   -0.8,   -1.0,   -0.8,   -1.2,   -1.6,   -1.6,   -2.1,   -2.5,   -2.4,   -2.3,   -1.7,   -1.4,   -1.1,   -1.6,   -1.4,   -1.5,   -1.5,   -1.4,   -1.1,   -1.0,   -1.2,   -1.4,   -1.1,   -0.9,   -1.1,   -1.6,  999.0,  999.0,  999.0,  999.0,  999.0,  999.0,   -1.1,  999.0,  999.0,  999.0,    0.1,  999.0,    0.5,    0.6,    0.6,  999.0,  999.0,  999.0,  999.0,  999.0,  999.0,  999.0,  999.0,  999.0,  999.0,  999.0,  999.0,  999.0,  999.0,  999.0,  999.0,  999.0,  999.0,  999.0,  999.0,  999.0,  999.0,  999.0,  999.0,  999.0,  999.0,  999.0,  999.0,  999.0,  999.0,  999.0,  999.0,  999.0,  999.0,  999.0,  999.0,  999.0,  999.0,  999.0,  999.0,  999.0,  999.0,  999.0,  999.0,  999.0,  999.0,  999.0,  999.0,  999.0
2010/07/16 05:50,  999.0,  999.0,  999.0,  999.0,  999.0,  999.0,   -0.5,   -1.1,   -1.1,  999.0,   -1.1,   -1.7,   -1.7,   -1.6,   -2.3,   -2.3,   -2.1,   -2.4,   -1.9,   -1.9,   -2.0,   -2.0,   -2.0,   -1.6,   -1.7,   -1.5,   -1.2,   -1.3,   -1.6,   -0.6,   -0.9,   -0.7,   -0.9,  999.0,    0.4,  999.0,  999.0,  999.0,  999.0,  999.0,  999.0,  999.0,  999.0,  999.0,  999.0,  999.0,  999.0,  999.0,  999.0,  999.0,  999.0,  999.0,  999.0,  999.0,  999.0,  999.0,  999.0,  999.0,  999.0,  999.0,  999.0,  999.0,  999.0,  999.0,  999.0,  999.0,  999.0,  999.0,  999.0,  999.0,  999.0,  999.0,  999.0,  999.0,  999.0,  999.0,  999.0,  999.0,  999.0,  999.0,  999.0,  999.0,  999.0,  999.0,  999.0,  999.0,  999.0,  999.0,  999.0,  999.0,  999.0,  999.0,  999.0,  999.0,  999.0,  999.0,  999.0,  999.0
2010/07/16 06:00,  999.0,  999.0,  999.0,  999.0,   -0.1,   -0.2,   -0.4,   -0.9,   -1.2,   -1.1,   -1.3,   -2.0,   -1.9,   -2.1,   -2.3,   -2.1,   -1.4,   -1.8,   -1.8,   -1.7,   -1.8,   -1.4,   -1.2,   -1.5,   -1.6,  999.0,   -0.5,   -1.8,   -2.7,   -0.9,   -1.2,   -1.0,   -1.4,   -1.6,  999.0,  999.0,  999.0,  999.0,  999.0,  999.0,  999.0,  999.0,    0.1,  999.0,  999.0,    1.2,    0.5,  999.0,  999.0,  999.0,  999.0,  999.0,  999.0,  999.0,  999.0,  999.0,  999.0,  999.0,  999.0,  999.0,  999.0,  999.0,  999.0,  999.0,  999.0,  999.0,  999.0,  999.0,  999.0,  999.0,  999.0,  999.0,  999.0,  999.0,  999.0,  999.0,  999.0,  999.0,  999.0,  999.0,  999.0,  999.0,  999.0,  999.0,  999.0,  999.0,  999.0,  999.0,  999.0,  999.0,  999.0,  999.0,  999.0,  999.0,  999.0,  999.0,  999.0,  999.0
2010/07/16 06:10,  999.0,  999.0,  999.0,  999.0,  999.0,   -0.2,   -0.6,   -1.0,   -1.4,   -1.2,   -1.3,   -1.9,   -1.8,   -1.9,   -2.0,   -1.7,   -1.2,   -1.8,   -1.4,   -1.5,   -1.4,   -1.2,   -1.2,   -1.2,   -0.9,  999.0,  999.0,   -0.8,   -2.2,   -1.5,   -1.0,   -0.6,   -1.0,   -0.9,  999.0,  999.0,  999.0,  999.0,   -0.7,  999.0,  999.0,   -0.0,    0.1,    0.7,  999.0,    1.2,  999.0,  999.0,  999.0,  999.0,  999.0,  999.0,  999.0,  999.0,  999.0,  999.0,  999.0,  999.0,  999.0,  999.0,  999.0,  999.0,  999.0,  999.0,  999.0,  999.0,  999.0,  999.0,  999.0,  999.0,  999.0,  999.0,  999.0,  999.0,  999.0,  999.0,  999.0,  999.0,  999.0,  999.0,  999.0,  999.0,  999.0,  999.0,  999.0,  999.0,  999.0,  999.0,  999.0,  999.0,  999.0,  999.0,  999.0,  999.0,  999.0,  999.0,  999.0,  999.0
2010/07/16 06:20,  999.0,  999.0,  999.0,  999.0,   -0.4,   -0.4,   -0.5,   -0.9,   -1.5,   -1.2,   -1.8,   -2.1,   -2.2,   -2.3,   -2.6,   -2.3,  999.0,   -1.7,   -1.7,   -1.5,   -1.4,   -0.9,   -1.1,   -1.1,   -1.0,  999.0,   -0.2,   -1.6,   -2.6,   -1.0,   -0.8,   -0.5,   -0.5,  999.0,  999.0,  999.0,  999.0,  999.0,   -0.6,    0.0,  999.0,  999.0,    0.0,  999.0,  999.0,    1.4,  999.0,  999.0,  999.0,  999.0,  999.0,  999.0,  999.0,  999.0,  999.0,  999.0,  999.0,  999.0,  999.0,  999.0,  999.0,  999.0,  999.0,  999.0,  999.0,  999.0,  999.0,  999.0,  999.0,  999.0,  999.0,  999.0,  999.0,  999.0,  999.0,  999.0,  999.0,  999.0,  999.0,  999.0,  999.0,  999.0,  999.0,  999.0,  999.0,  999.0,  999.0,  999.0,  999.0,  999.0,  999.0,  999.0,  999.0,  999.0,  999.0,  999.0,  999.0,  999.0
2010/07/16 06:30,  999.0,  999.0,  999.0,   -0.0,   -0.0,   -0.2,   -0.3,   -0.7,   -1.4,   -1.0,   -1.2,   -1.8,   -1.8,   -2.0,   -2.5,   -2.2,   -2.5,  999.0,   -1.8,  999.0,   -1.4,   -1.4,   -1.2,   -1.6,   -1.8,  999.0,  999.0,   -1.5,   -2.7,   -1.6,   -1.3,   -1.3,   -1.1,   -1.3,   -1.0,  999.0,  999.0,  999.0,  999.0,  999.0,    0.6,    1.0,  999.0,  999.0,    0.7,    1.1,  999.0,  999.0,  999.0,  999.0,  999.0,  999.0,  999.0,  999.0,  999.0,  999.0,  999.0,  999.0,  999.0,  999.0,  999.0,  999.0,  999.0,  999.0,  999.0,  999.0,  999.0,  999.0,  999.0,  999.0,  999.0,  999.0,  999.0,  999.0,  999.0,  999.0,  999.0,  999.0,  999.0,  999.0,  999.0,  999.0,  999.0,  999.0,  999.0,  999.0,  999.0,  999.0,  999.0,  999.0,  999.0,  999.0,  999.0,  999.0,  999.0,  999.0,  999.0,  999.0
2010/07/16 06:40,  999.0,  999.0,  999.0,  999.0,  999.0,  999.0,  999.0,  999.0,  999.0,  999.0,  999.0,  999.0,  999.0,  999.0,  999.0,   -2.1,  999.0,  999.0,   -1.0,   -1.2,   -0.6,   -1.1,   -1.2,   -1.1,   -1.2,   -0.9,  999.0,   -1.7,   -2.9,   -1.4,   -1.3,   -1.0,   -1.2,   -1.4,  999.0,  999.0,  999.0,  999.0,   -0.6,  999.0,  999.0,  999.0,  999.0,  999.0,    0.0,  999.0,  999.0,  999.0,  999.0,  999.0,  999.0,   -1.3,  999.0,  999.0,  999.0,  999.0,  999.0,  999.0,  999.0,  999.0,  999.0,  999.0,  999.0,  999.0,  999.0,  999.0,  999.0,  999.0,  999.0,  999.0,  999.0,  999.0,  999.0,  999.0,  999.0,  999.0,  999.0,  999.0,  999.0,  999.0,  999.0,  999.0,  999.0,  999.0,  999.0,  999.0,  999.0,  999.0,  999.0,  999.0,  999.0,  999.0,  999.0,  999.0,  999.0,  999.0,  999.0,  999.0
2010/07/16 06:50,  999.0,  999.0,  999.0,    0.8,    0.5,    0.9,  999.0,   -0.5,   -0.7,  999.0,  999.0,   -1.4,   -1.6,   -1.6,   -2.0,   -2.0,   -3.3,  999.0,   -0.7,   -0.8,   -0.6,   -0.8,   -0.7,   -1.0,   -1.0,  999.0,  999.0,   -1.6,   -2.6,   -2.2,   -1.5,   -1.3,  999.0,   -1.4,   -1.1,  999.0,  999.0,  999.0,  999.0,  999.0,  999.0,  999.0,  999.0,  999.0,  999.0,  999.0,  999.0,  999.0,  999.0,  999.0,  999.0,  999.0,  999.0,  999.0,  999.0,  999.0,  999.0,  999.0,  999.0,  999.0,  999.0,  999.0,  999.0,  999.0,  999.0,  999.0,  999.0,  999.0,  999.0,  999.0,  999.0,  999.0,  999.0,  999.0,  999.0,  999.0,  999.0,  999.0,  999.0,  999.0,  999.0,  999.0,  999.0,  999.0,  999.0,  999.0,  999.0,  999.0,  999.0,  999.0,  999.0,  999.0,  999.0,  999.0,  999.0,  999.0,  999.0,  999.0
2010/07/16 07:00,  999.0,  999.0,  999.0,    0.8,    0.8,    0.9,  999.0,   -0.4,  999.0,   -0.6,   -1.1,   -1.7,   -1.5,   -1.7,   -2.0,   -2.0,   -2.1,   -1.9,   -1.0,   -1.3,   -0.9,   -1.1,   -1.4,   -1.3,   -1.2,  999.0,   -1.2,   -2.1,   -2.6,   -2.3,  999.0,   -1.2,  999.0,   -1.1,   -0.9,  999.0,  999.0,  999.0,   -0.7,   -0.4,  999.0,  999.0,  999.0,  999.0,  999.0,  999.0,  999.0,  999.0,   -0.5,  999.0,  999.0,  999.0,  999.0,  999.0,  999.0,  999.0,  999.0,  999.0,  999.0,  999.0,  999.0,  999.0,  999.0,  999.0,  999.0,  999.0,  999.0,  999.0,  999.0,  999.0,  999.0,  999.0,  999.0,  999.0,  999.0,  999.0,  999.0,  999.0,  999.0,  999.0,  999.0,  999.0,  999.0,  999.0,  999.0,  999.0,  999.0,  999.0,  999.0,  999.0,  999.0,  999.0,  999.0,  999.0,  999.0,  999.0,  999.0,  999.0
2010/07/16 07:10,  999.0,  999.0,    0.5,    1.1,    0.9,    1.1,    0.0,   -0.5,   -0.0,   -0.4,   -1.2,   -1.6,   -1.5,   -1.6,   -1.9,   -2.0,   -1.9,   -1.2,   -1.0,   -1.7,   -1.2,   -1.1,   -1.1,   -1.2,   -1.2,   -1.3,   -1.5,   -2.2,   -2.4,   -2.0,  999.0,  999.0,  999.0,  999.0,   -0.9,  999.0,  999.0,  999.0,  999.0,  999.0,  999.0,  999.0,  999.0,  999.0,  999.0,  999.0,    0.1,  999.0,  999.0,  999.0,  999.0,  999.0,  999.0,  999.0,  999.0,  999.0,  999.0,  999.0,  999.0,  999.0,  999.0,  999.0,  999.0,  999.0,  999.0,  999.0,  999.0,  999.0,  999.0,  999.0,  999.0,  999.0,  999.0,  999.0,  999.0,  999.0,  999.0,  999.0,  999.0,  999.0,  999.0,  999.0,  999.0,  999.0,  999.0,  999.0,  999.0,  999.0,  999.0,  999.0,  999.0,  999.0,  999.0,  999.0,  999.0,  999.0,  999.0,  999.0
2010/07/16 07:20,   -0.2,   -0.0,    1.3,    1.1,    1.2,    0.6,    0.1,    0.3,  999.0,   -0.1,   -1.2,   -1.4,   -1.4,   -1.5,   -1.6,   -1.8,   -1.3,   -0.9,   -0.9,   -1.0,   -1.0,   -0.9,   -0.9,   -0.9,  999.0,   -1.4,   -2.1,   -2.3,   -2.1,   -1.6,   -2.0,   -2.3,   -1.7,  999.0,  999.0,  999.0,  999.0,  999.0,  999.0,  999.0,  999.0,  999.0,  999.0,  999.0,  999.0,  999.0,  999.0,    0.2,  999.0,  999.0,  999.0,  999.0,  999.0,  999.0,  999.0,  999.0,  999.0,  999.0,  999.0,  999.0,  999.0,  999.0,  999.0,  999.0,  999.0,  999.0,  999.0,  999.0,  999.0,  999.0,  999.0,  999.0,  999.0,  999.0,  999.0,  999.0,  999.0,  999.0,  999.0,  999.0,  999.0,  999.0,  999.0,  999.0,  999.0,  999.0,  999.0,  999.0,  999.0,  999.0,  999.0,  999.0,  999.0,  999.0,  999.0,  999.0,  999.0,  999.0
2010/07/16 07:30,   -0.1,    0.1,    0.7,    1.3,    1.3,  999.0,    0.3,    0.3,   -0.0,   -0.4,   -1.0,   -1.0,   -1.2,   -1.2,   -1.4,   -1.6,  999.0,   -1.3,   -1.3,   -1.0,   -1.2,   -1.0,   -1.1,   -1.1,  999.0,   -1.5,  999.0,   -2.2,   -1.7,   -1.7,  999.0,  999.0,  999.0,  999.0,  999.0,  999.0,  999.0,  999.0,  999.0,   -0.1,  999.0,  999.0,  999.0,  999.0,  999.0,  999.0,  999.0,  999.0,  999.0,  999.0,  999.0,  999.0,  999.0,  999.0,  999.0,  999.0,    1.1,    1.8,    1.8,  999.0,  999.0,  999.0,  999.0,  999.0,  999.0,  999.0,  999.0,  999.0,  999.0,  999.0,  999.0,  999.0,  999.0,  999.0,  999.0,  999.0,  999.0,  999.0,  999.0,  999.0,  999.0,  999.0,  999.0,  999.0,  999.0,  999.0,  999.0,  999.0,  999.0,  999.0,  999.0,  999.0,  999.0,  999.0,  999.0,  999.0,  999.0,  999.0
2010/07/16 07:40,  999.0,    0.1,    0.6,    1.4,    1.4,  999.0,    0.7,    0.7,  999.0,   -0.4,   -1.1,   -1.1,   -1.3,   -1.2,   -1.3,   -1.6,   -1.5,   -1.3,   -1.7,   -1.0,   -1.1,   -1.0,   -0.2,  999.0,  999.0,  999.0,   -1.2,   -1.4,   -1.2,  999.0,  999.0,   -1.0,   -0.5,  999.0,  999.0,  999.0,  999.0,  999.0,   -0.3,   -0.3,  999.0,  999.0,    1.2,    1.4,  999.0,  999.0,  999.0,  999.0,  999.0,  999.0,  999.0,  999.0,  999.0,  999.0,  999.0,    0.5,    1.0,    1.7,  999.0,  999.0,  999.0,  999.0,  999.0,  999.0,  999.0,  999.0,  999.0,  999.0,  999.0,  999.0,  999.0,  999.0,  999.0,  999.0,  999.0,  999.0,  999.0,  999.0,  999.0,  999.0,  999.0,  999.0,  999.0,  999.0,  999.0,  999.0,  999.0,  999.0,  999.0,  999.0,  999.0,  999.0,  999.0,  999.0,  999.0,  999.0,  999.0,  999.0
2010/07/16 07:50,    0.3,   -0.8,   -0.2,    1.0,    0.5,    0.2,  999.0,    0.4,   -2.5,   -1.6,   -1.1,   -0.9,   -1.2,   -1.0,   -1.1,   -1.7,   -1.3,   -1.2,   -1.4,   -0.9,   -1.0,   -0.8,   -0.6,   -0.2,  999.0,   -1.1,   -1.2,   -1.2,  999.0,   -1.2,  999.0,   -1.4,   -0.5,    0.1,  999.0,   -0.1,   -0.7,  999.0,  999.0,  999.0,  999.0,  999.0,  999.0,  999.0,  999.0,  999.0,  999.0,  999.0,  999.0,  999.0,  999.0,  999.0,  999.0,  999.0,  999.0,    0.1,  999.0,  999.0,  999.0,  999.0,  999.0,  999.0,  999.0,  999.0,  999.0,  999.0,  999.0,  999.0,  999.0,  999.0,  999.0,  999.0,  999.0,  999.0,  999.0,  999.0,  999.0,  999.0,  999.0,  999.0,  999.0,  999.0,  999.0,  999.0,  999.0,  999.0,  999.0,  999.0,  999.0,  999.0,  999.0,  999.0,  999.0,  999.0,  999.0,  999.0,  999.0,  999.0
2010/07/16 08:00,  999.0,   -0.2,    0.4,    1.3,    1.1,    0.8,    0.5,    0.4,    0.2,   -0.1,   -0.6,   -0.6,   -1.0,   -0.6,   -0.6,   -1.1,   -1.1,   -1.1,   -1.2,   -1.0,   -0.9,   -0.1,   -0.0,    0.2,  999.0,   -0.8,   -1.0,  999.0,   -0.9,   -1.1,  999.0,   -0.2,   -0.4,  999.0,  999.0,   -0.6,   -0.6,  999.0,  999.0,  999.0,  999.0,  999.0,  999.0,  999.0,  999.0,  999.0,  999.0,  999.0,  999.0,  999.0,  999.0,  999.0,  999.0,  999.0,  999.0,  999.0,  999.0,  999.0,  999.0,  999.0,  999.0,  999.0,  999.0,  999.0,  999.0,  999.0,  999.0,  999.0,  999.0,  999.0,  999.0,  999.0,  999.0,  999.0,  999.0,  999.0,  999.0,  999.0,  999.0,  999.0,  999.0,  999.0,  999.0,  999.0,  999.0,  999.0,  999.0,  999.0,  999.0,  999.0,  999.0,  999.0,  999.0,  999.0,  999.0,  999.0,  999.0,  999.0
2010/07/16 08:10,    0.6,   -0.0,    0.9,    1.4,    1.2,    1.1,    0.7,    0.3,   -0.1,   -0.2,   -1.0,   -1.1,   -1.1,   -1.2,  999.0,   -1.4,   -1.2,   -1.4,   -1.6,  999.0,   -0.8,  999.0,   -0.2,   -0.2,   -0.1,   -0.5,   -0.4,   -0.7,   -0.9,   -1.2,  999.0,   -0.8,   -0.4,   -0.4,   -0.5,   -0.6,  999.0,  999.0,    0.0,    0.0,    0.6,  999.0,  999.0,  999.0,  999.0,  999.0,  999.0,  999.0,  999.0,  999.0,  999.0,  999.0,  999.0,  999.0,  999.0,  999.0,  999.0,  999.0,  999.0,  999.0,  999.0,  999.0,  999.0,  999.0,  999.0,  999.0,  999.0,  999.0,  999.0,  999.0,  999.0,  999.0,  999.0,  999.0,  999.0,  999.0,  999.0,  999.0,  999.0,  999.0,  999.0,  999.0,  999.0,  999.0,  999.0,  999.0,  999.0,  999.0,  999.0,  999.0,  999.0,  999.0,  999.0,  999.0,  999.0,  999.0,  999.0,  999.0
2010/07/16 08:20,  999.0,    0.3,    1.4,    1.9,    1.7,  999.0,    1.0,    0.4,  999.0,    0.1,   -0.0,   -0.4,   -0.4,   -0.5,   -0.6,   -1.0,   -0.8,   -1.1,   -1.3,   -0.8,   -0.5,   -0.2,  999.0,    0.7,   -0.1,   -0.4,   -0.9,   -0.8,   -1.1,   -1.1,  999.0,   -0.7,   -0.3,   -0.6,   -0.7,   -0.9,  999.0,  999.0,    0.1,  999.0,  999.0,  999.0,  999.0,  999.0,  999.0,  999.0,  999.0,  999.0,  999.0,  999.0,  999.0,  999.0,  999.0,  999.0,  999.0,  999.0,  999.0,    0.7,  999.0,  999.0,  999.0,  999.0,  999.0,  999.0,  999.0,  999.0,  999.0,  999.0,  999.0,  999.0,  999.0,  999.0,  999.0,  999.0,  999.0,  999.0,  999.0,  999.0,  999.0,  999.0,  999.0,  999.0,  999.0,  999.0,  999.0,  999.0,  999.0,  999.0,  999.0,  999.0,  999.0,  999.0,  999.0,  999.0,  999.0,  999.0,  999.0,  999.0
2010/07/16 08:30,  999.0,    0.4,    1.4,    1.8,    1.7,    1.7,    1.0,    0.5,    0.3,    0.3,  999.0,   -0.5,   -0.4,   -0.6,   -0.8,   -1.0,   -0.9,   -0.9,   -1.2,   -0.5,  999.0,    0.1,    0.2,    0.7,  999.0,    0.8,   -0.1,   -0.9,   -1.1,   -1.4,  999.0,   -0.9,   -0.8,   -0.4,   -0.6,  999.0,  999.0,  999.0,  999.0,    0.4,  999.0,  999.0,  999.0,  999.0,  999.0,    0.7,  999.0,  999.0,  999.0,  999.0,  999.0,  999.0,  999.0,  999.0,    1.3,    1.0,    1.5,    1.2,  999.0,  999.0,  999.0,  999.0,  999.0,  999.0,  999.0,  999.0,  999.0,  999.0,  999.0,  999.0,  999.0,  999.0,  999.0,  999.0,  999.0,  999.0,  999.0,  999.0,  999.0,  999.0,  999.0,  999.0,  999.0,  999.0,  999.0,  999.0,  999.0,  999.0,  999.0,  999.0,  999.0,  999.0,  999.0,  999.0,  999.0,  999.0,  999.0,  999.0
2010/07/16 08:40,  999.0,    0.2,   -0.1,    0.8,    1.1,  999.0,    1.1,   -0.4,  999.0,  999.0,   -0.1,  999.0,  999.0,   -0.7,   -0.9,   -1.1,   -1.0,   -1.0,   -1.4,  999.0,  999.0,   -0.1,  999.0,    0.7,    0.6,    0.1,   -0.6,   -0.9,   -1.3,   -1.7,  999.0,  999.0,   -1.2,   -0.6,  999.0,   -0.6,  999.0,  999.0,  999.0,  999.0,  999.0,  999.0,  999.0,  999.0,  999.0,  999.0,  999.0,  999.0,  999.0,  999.0,  999.0,  999.0,  999.0,  999.0,  999.0,    1.4,    1.4,  999.0,  999.0,  999.0,  999.0,  999.0,  999.0,  999.0,  999.0,  999.0,  999.0,  999.0,  999.0,  999.0,  999.0,  999.0,  999.0,  999.0,  999.0,  999.0,  999.0,  999.0,  999.0,  999.0,  999.0,  999.0,  999.0,  999.0,  999.0,  999.0,  999.0,  999.0,  999.0,  999.0,  999.0,  999.0,  999.0,  999.0,  999.0,  999.0,  999.0,  999.0
2010/07/16 08:50,  999.0,   -0.3,    1.2,  999.0,  999.0,  999.0,    0.8,    0.2,    0.5,  999.0,  999.0,  999.0,  999.0,   -0.4,   -0.4,  999.0,   -1.0,   -0.7,   -1.0,  999.0,  999.0,    0.7,    0.5,    0.4,  999.0,  999.0,  999.0,  999.0,   -1.4,   -1.4,  999.0,  999.0,  999.0,   -0.6,  999.0,  999.0,  999.0,  999.0,  999.0,  999.0,  999.0,  999.0,  999.0,  999.0,  999.0,  999.0,  999.0,  999.0,  999.0,  999.0,  999.0,  999.0,  999.0,  999.0,  999.0,  999.0,  999.0,  999.0,  999.0,  999.0,  999.0,  999.0,  999.0,  999.0,  999.0,  999.0,  999.0,  999.0,  999.0,  999.0,  999.0,  999.0,  999.0,  999.0,  999.0,  999.0,  999.0,  999.0,  999.0,  999.0,  999.0,  999.0,  999.0,  999.0,  999.0,  999.0,  999.0,  999.0,  999.0,  999.0,  999.0,  999.0,  999.0,  999.0,  999.0,  999.0,  999.0,  999.0
2010/07/16 09:00,    0.1,   -0.0,    1.6,    2.0,    2.7,    1.7,    0.8,    0.4,    0.5,    0.4,    0.2,  999.0,   -0.0,    0.0,   -0.3,  999.0,   -0.7,   -0.8,  999.0,  999.0,    0.9,  999.0,    0.7,    0.5,    0.3,    0.4,   -0.4,  999.0,  999.0,   -1.4,  999.0,  999.0,  999.0,   -0.3,   -1.1,  999.0,  999.0,  999.0,  999.0,  999.0,  999.0,    1.1,  999.0,  999.0,  999.0,  999.0,    1.0,  999.0,  999.0,  999.0,  999.0,  999.0,  999.0,  999.0,  999.0,  999.0,  999.0,  999.0,  999.0,  999.0,  999.0,  999.0,  999.0,  999.0,  999.0,  999.0,  999.0,  999.0,  999.0,  999.0,  999.0,  999.0,  999.0,  999.0,  999.0,  999.0,  999.0,  999.0,  999.0,  999.0,  999.0,  999.0,  999.0,  999.0,  999.0,  999.0,  999.0,  999.0,  999.0,  999.0,  999.0,  999.0,  999.0,  999.0,  999.0,  999.0,  999.0,  999.0
2010/07/16 09:10,   -0.4,    1.0,    1.1,    1.9,    2.0,    2.3,    1.6,    0.3,    0.3,    0.0,   -0.1,   -0.1,   -0.3,   -0.6,   -0.6,   -1.2,   -1.2,   -1.3,   -1.1,  999.0,  999.0,    0.1,    0.3,    0.3,  999.0,   -0.5,   -1.0,   -1.0,  999.0,   -1.9,  999.0,   -1.4,  999.0,   -0.2,   -0.6,   -1.3,  999.0,  999.0,   -0.2,  999.0,    0.6,  999.0,  999.0,  999.0,  999.0,  999.0,    1.5,  999.0,  999.0,  999.0,  999.0,  999.0,  999.0,  999.0,  999.0,  999.0,  999.0,  999.0,  999.0,  999.0,  999.0,  999.0,  999.0,  999.0,  999.0,  999.0,  999.0,  999.0,  999.0,  999.0,  999.0,  999.0,  999.0,  999.0,  999.0,  999.0,  999.0,  999.0,  999.0,  999.0,  999.0,  999.0,  999.0,  999.0,  999.0,  999.0,  999.0,  999.0,  999.0,  999.0,  999.0,  999.0,  999.0,  999.0,  999.0,  999.0,  999.0,  999.0
2010/07/16 09:20,   -0.2,    0.2,    1.3,    0.8,    1.5,    1.4,    1.5,    1.0,    0.3,   -0.3,    0.6,  999.0,  999.0,  999.0,   -0.6,  999.0,  999.0,   -1.0,   -0.9,    0.1,    0.3,    0.4,    0.3,    1.0,    0.6,  999.0,   -0.7,   -0.7,  999.0,   -1.7,  999.0,  999.0,   -0.3,   -0.7,  999.0,  999.0,  999.0,  999.0,    0.0,  999.0,  999.0,    1.2,  999.0,  999.0,  999.0,  999.0,    0.3,  999.0,  999.0,  999.0,  999.0,  999.0,   -0.1,   -0.2,  999.0,  999.0,    1.3,  999.0,  999.0,  999.0,  999.0,  999.0,  999.0,  999.0,  999.0,  999.0,  999.0,  999.0,  999.0,  999.0,  999.0,  999.0,  999.0,  999.0,  999.0,  999.0,  999.0,  999.0,  999.0,  999.0,  999.0,  999.0,  999.0,  999.0,  999.0,  999.0,  999.0,  999.0,  999.0,  999.0,  999.0,  999.0,  999.0,  999.0,  999.0,  999.0,  999.0,  999.0
2010/07/16 09:30,  999.0,  999.0,  999.0,  999.0,    1.3,    0.3,    0.0,    0.0,   -0.0,   -0.4,    0.9,    0.6,    0.0,   -0.4,   -0.5,   -0.6,  999.0,   -2.0,   -1.2,   -0.1,   -0.1,    0.1,    0.4,    1.2,    1.5,    1.9,    1.1,    0.5,   -0.0,  999.0,  999.0,  999.0,   -0.4,  999.0,  999.0,  999.0,  999.0,  999.0,  999.0,  999.0,  999.0,  999.0,  999.0,  999.0,  999.0,  999.0,  999.0,  999.0,  999.0,  999.0,  999.0,    0.4,  999.0,  999.0,  999.0,  999.0,  999.0,  999.0,  999.0,  999.0,  999.0,  999.0,  999.0,  999.0,  999.0,  999.0,  999.0,  999.0,  999.0,  999.0,  999.0,  999.0,  999.0,  999.0,  999.0,  999.0,  999.0,  999.0,  999.0,  999.0,  999.0,  999.0,  999.0,  999.0,  999.0,  999.0,  999.0,  999.0,  999.0,  999.0,  999.0,  999.0,  999.0,  999.0,  999.0,  999.0,  999.0,  999.0
2010/07/16 09:40,   -0.4,   -0.0,  999.0,  999.0,  999.0,    1.6,    1.3,    1.4,    1.5,    1.7,    1.7,    0.7,   -0.4,   -0.1,   -0.3,   -0.6,   -0.1,   -0.6,   -0.6,  999.0,   -0.4,   -0.1,    0.7,    1.3,    1.6,    1.8,  999.0,    1.0,    0.7,  999.0,  999.0,  999.0,   -0.4,  999.0,  999.0,  999.0,  999.0,  999.0,  999.0,  999.0,  999.0,  999.0,  999.0,  999.0,  999.0,  999.0,  999.0,  999.0,  999.0,  999.0,  999.0,    0.3,    0.7,  999.0,  999.0,  999.0,  999.0,  999.0,  999.0,  999.0,  999.0,  999.0,  999.0,  999.0,  999.0,  999.0,  999.0,  999.0,  999.0,  999.0,  999.0,  999.0,  999.0,  999.0,  999.0,  999.0,  999.0,  999.0,  999.0,  999.0,  999.0,  999.0,  999.0,  999.0,  999.0,  999.0,  999.0,  999.0,  999.0,  999.0,  999.0,  999.0,  999.0,  999.0,  999.0,  999.0,  999.0,  999.0
2010/07/16 09:50,    1.3,  999.0,    3.0,  999.0,    2.9,    1.6,    2.2,    2.7,    2.8,    3.3,    2.3,    2.3,    5.7,  999.0,  999.0,    1.9,  999.0,  999.0,   -1.0,   -0.9,   -0.8,    0.6,  999.0,    0.7,    1.0,    1.5,    1.5,    1.1,    0.4,   -0.2,  999.0,  999.0,  999.0,  999.0,  999.0,  999.0,  999.0,  999.0,  999.0,  999.0,    0.2,  999.0,  999.0,  999.0,  999.0,  999.0,  999.0,  999.0,  999.0,  999.0,  999.0,    0.7,  999.0,  999.0,  999.0,  999.0,    0.3,  999.0,  999.0,  999.0,  999.0,  999.0,  999.0,  999.0,  999.0,  999.0,  999.0,  999.0,  999.0,  999.0,  999.0,  999.0,  999.0,  999.0,  999.0,  999.0,  999.0,  999.0,  999.0,  999.0,  999.0,  999.0,  999.0,  999.0,  999.0,  999.0,  999.0,  999.0,  999.0,  999.0,  999.0,  999.0,  999.0,  999.0,  999.0,  999.0,  999.0,  999.0
2010/07/16 10:00,  999.0,  999.0,  999.0,  999.0,    1.4,    0.9,    1.6,    1.5,    1.5,    1.6,    0.9,    0.9,    0.9,    0.7,    0.1,   -0.0,   -0.6,   -0.9,   -0.1,   -0.4,   -0.5,   -0.5,   -0.1,   -0.3,  999.0,    0.6,    0.2,    0.1,   -0.1,  999.0,  999.0,  999.0,  999.0,  999.0,  999.0,  999.0,  999.0,  999.0,  999.0,  999.0,  999.0,  999.0,  999.0,  999.0,  999.0,  999.0,   -0.6,   -0.1,  999.0,  999.0,  999.0,  999.0,  999.0,  999.0,  999.0,  999.0,    0.2,    0.3,  999.0,  999.0,  999.0,  999.0,  999.0,  999.0,  999.0,  999.0,  999.0,  999.0,  999.0,  999.0,  999.0,  999.0,  999.0,  999.0,  999.0,  999.0,  999.0,  999.0,  999.0,  999.0,  999.0,  999.0,  999.0,  999.0,  999.0,  999.0,  999.0,  999.0,  999.0,  999.0,  999.0,  999.0,  999.0,  999.0,  999.0,  999.0,  999.0,  999.0
2010/07/16 10:10,  999.0,  999.0,  999.0,  999.0,  999.0,    0.8,    1.6,    1.1,    1.7,    1.4,    0.2,   -0.3,   -0.2,    0.3,   -0.6,   -0.2,    0.6,    0.6,    0.4,   -0.3,   -0.3,   -0.0,   -0.2,    0.1,    0.3,    1.1,    0.9,    0.6,    1.0,  999.0,  999.0,  999.0,  999.0,  999.0,  999.0,   -0.9,  999.0,  999.0,   -0.9,  999.0,  999.0,  999.0,  999.0,  999.0,  999.0,  999.0,   -0.1,  999.0,  999.0,  999.0,  999.0,  999.0,  999.0,  999.0,  999.0,  999.0,   -0.2,  999.0,    0.8,  999.0,  999.0,  999.0,  999.0,  999.0,  999.0,  999.0,  999.0,  999.0,  999.0,  999.0,  999.0,  999.0,  999.0,  999.0,  999.0,  999.0,  999.0,  999.0,  999.0,  999.0,  999.0,  999.0,  999.0,  999.0,  999.0,  999.0,  999.0,  999.0,  999.0,  999.0,  999.0,  999.0,  999.0,  999.0,  999.0,  999.0,  999.0,  999.0
2010/07/16 10:20,   -0.4,   -0.1,   -0.6,   -0.4,    0.1,    0.5,    1.1,    2.0,    2.5,    1.2,    0.3,   -0.8,   -0.4,   -0.1,   -1.1,   -0.3,    0.6,    1.5,    0.7,    1.5,    1.5,    2.0,    1.5,    0.6,    0.8,    1.0,    0.8,    0.7,    0.5,    0.1,   -0.0,   -0.0,  999.0,  999.0,   -0.4,  999.0,   -1.1,  999.0,   -1.6,   -1.4,  999.0,  999.0,  999.0,  999.0,  999.0,  999.0,   -0.0,  999.0,  999.0,  999.0,  999.0,  999.0,  999.0,    0.0,   -0.9,  999.0,    0.2,    0.3,    0.2,  999.0,  999.0,  999.0,  999.0,  999.0,  999.0,  999.0,  999.0,  999.0,  999.0,  999.0,  999.0,  999.0,  999.0,  999.0,  999.0,  999.0,  999.0,  999.0,  999.0,  999.0,  999.0,  999.0,  999.0,  999.0,  999.0,  999.0,  999.0,  999.0,  999.0,  999.0,  999.0,  999.0,  999.0,  999.0,  999.0,  999.0,  999.0,  999.0
2010/07/16 10:30,   -0.2,   -0.3,   -0.9,    0.1,    0.8,    0.8,    1.2,    1.2,    1.7,    1.4,    1.1,    1.8,    1.1,    0.7,    0.6,    0.8,    1.2,    1.5,    1.5,    1.2,    1.3,    1.3,    1.0,    1.3,    1.4,    1.0,    1.2,    1.2,    1.2,    0.5,    0.9,    1.8,    0.4,   -0.2,   -0.3,    0.0,   -0.9,  999.0,   -0.1,   -0.9,  999.0,  999.0,  999.0,  999.0,  999.0,  999.0,    0.6,  999.0,   -0.6,   -0.8,  999.0,  999.0,  999.0,  999.0,   -0.6,  999.0,  999.0,    0.1,  999.0,  999.0,  999.0,  999.0,  999.0,  999.0,  999.0,  999.0,  999.0,  999.0,  999.0,  999.0,  999.0,  999.0,  999.0,  999.0,  999.0,  999.0,  999.0,  999.0,  999.0,  999.0,  999.0,  999.0,  999.0,  999.0,  999.0,  999.0,  999.0,  999.0,  999.0,  999.0,  999.0,  999.0,  999.0,  999.0,  999.0,  999.0,  999.0,  999.0
2010/07/16 10:40,  999.0,  999.0,  999.0,  999.0,  999.0,    0.3,   -0.7,   -1.8,  999.0,  999.0,  999.0,   -0.8,   -2.6,   -1.1,   -1.9,   -1.0,   -0.3,    0.3,    1.3,    1.2,    1.4,    1.5,    1.2,    0.4,    0.7,    1.3,    1.1,    1.0,    0.9,    0.2,    0.5,    0.2,    0.2,    0.1,   -0.7,   -1.3,  999.0,  999.0,  999.0,   -1.9,  999.0,   -2.3,   -1.4,    0.0,    0.1,   -2.2,   -0.9,   -1.1,   -1.1,  999.0,  999.0,  999.0,  999.0,  999.0,  999.0,  999.0,  999.0,  999.0,  999.0,  999.0,  999.0,  999.0,  999.0,  999.0,  999.0,  999.0,  999.0,  999.0,  999.0,  999.0,  999.0,  999.0,  999.0,  999.0,  999.0,  999.0,  999.0,  999.0,  999.0,  999.0,  999.0,  999.0,  999.0,  999.0,  999.0,  999.0,  999.0,  999.0,  999.0,  999.0,  999.0,  999.0,  999.0,  999.0,  999.0,  999.0,  999.0,  999.0
2010/07/16 10:50,  999.0,    1.3,    3.7,    4.2,    0.1,    1.3,    1.5,    2.6,    4.1,    4.3,    3.8,    1.4,    1.3,   -0.1,    0.8,    0.2,    1.0,    1.2,    2.5,    2.0,    1.7,    2.1,    1.3,    1.0,    0.7,    0.7,    0.4,   -0.0,    0.0,   -1.7,   -0.0,   -2.0,   -1.6,    1.6,    0.0,    1.8,    1.5,    2.1,  999.0,  999.0,   -0.9,   -1.8,   -3.9,  999.0,   -4.6,   -2.0,   -1.2,   -2.8,  999.0,  999.0,  999.0,  999.0,  999.0,  999.0,  999.0,  999.0,  999.0,  999.0,  999.0,  999.0,  999.0,  999.0,  999.0,  999.0,  999.0,  999.0,  999.0,  999.0,  999.0,  999.0,  999.0,  999.0,  999.0,  999.0,  999.0,  999.0,  999.0,  999.0,  999.0,  999.0,  999.0,  999.0,  999.0,  999.0,  999.0,  999.0,  999.0,  999.0,  999.0,  999.0,  999.0,  999.0,  999.0,  999.0,  999.0,  999.0,  999.0,  999.0
2010/07/16 11:00,  999.0,  999.0,  999.0,  999.0,    1.9,  999.0,    1.5,    4.4,   -1.5,    3.4,    4.5,    5.0,   14.6,    7.2,    9.3,    5.7,    7.6,  999.0,   10.1,    8.4,    8.0,    5.3,    7.3,    7.1,    7.0,    7.5,    5.9,    2.6,    1.0,   -1.7,    0.4,    1.2,    0.6,    1.5,    1.4,    0.1,    1.7,    1.2,    2.9,    2.0,  999.0,  999.0,  999.0,  999.0,  999.0,  999.0,  999.0,  999.0,   -3.8,  999.0,  999.0,  999.0,  999.0,  999.0,  999.0,  999.0,  999.0,  999.0,  999.0,  999.0,  999.0,  999.0,  999.0,  999.0,  999.0,  999.0,  999.0,  999.0,  999.0,  999.0,  999.0,  999.0,  999.0,  999.0,  999.0,  999.0,  999.0,  999.0,  999.0,  999.0,  999.0,  999.0,  999.0,  999.0,  999.0,  999.0,  999.0,  999.0,  999.0,  999.0,  999.0,  999.0,  999.0,  999.0,  999.0,  999.0,  999.0,  999.0
2010/07/16 11:10,  999.0,  999.0,    3.7,  999.0,    5.5,  999.0,   -1.3,  999.0,   -2.7,   -4.8,   -4.7,   -1.7,    0.8,  999.0,   -1.4,  999.0,  999.0,    4.4,  999.0,  999.0,  999.0,  999.0,  999.0,   -8.6,   -4.1,   -5.7,  999.0,   -5.3,   -4.3,   -1.3,   -1.0,   -3.7,   -1.9,  999.0,   -1.6,    1.0,   -0.7,   -0.4,  999.0,  999.0,  999.0,  999.0,  999.0,  999.0,  999.0,  999.0,   -3.0,   -1.4,  999.0,  999.0,  999.0,  999.0,  999.0,  999.0,  999.0,  999.0,  999.0,  999.0,  999.0,  999.0,  999.0,  999.0,  999.0,  999.0,  999.0,  999.0,  999.0,  999.0,  999.0,  999.0,  999.0,  999.0,  999.0,  999.0,  999.0,  999.0,  999.0,  999.0,  999.0,  999.0,  999.0,  999.0,  999.0,  999.0,  999.0,  999.0,  999.0,  999.0,  999.0,  999.0,  999.0,  999.0,  999.0,  999.0,  999.0,  999.0,  999.0,  999.0
2010/07/16 11:20,   -2.9,  999.0,  999.0,   -1.8,   -3.4,   -3.5,   -4.0,   -2.4,   -3.2,   -1.5,   -2.7,   -1.6,   -0.5,   -0.4,   -0.1,   -2.2,   -2.5,   -1.9,   -2.8,   -1.9,   -2.3,    0.9,   -1.3,   -3.3,   -2.5,   -1.1,   -1.0,    1.1,    0.7,    0.5,   -1.3,    0.6,   -2.6,   -1.8,   -1.6,   -1.0,   -1.4,    0.2,   -0.4,   -1.2,   -0.3,  999.0,  999.0,  999.0,  999.0,    0.2,   -0.1,   -0.6,    0.3,  999.0,  999.0,   -0.2,    0.5,  999.0,  999.0,   -0.6,  999.0,  999.0,  999.0,  999.0,  999.0,  999.0,  999.0,  999.0,  999.0,  999.0,  999.0,  999.0,  999.0,  999.0,  999.0,  999.0,  999.0,  999.0,  999.0,  999.0,  999.0,  999.0,  999.0,  999.0,  999.0,  999.0,  999.0,  999.0,  999.0,  999.0,  999.0,  999.0,  999.0,  999.0,  999.0,  999.0,  999.0,  999.0,  999.0,  999.0,  999.0,  999.0
2010/07/16 11:30,    0.2,   -0.1,   -0.0,   -0.1,   -0.1,    0.3,    0.9,    0.6,    1.1,    0.9,    0.6,   -0.6,    0.4,    1.2,    0.7,  999.0,    0.0,   -0.2,   -0.3,   -0.6,    0.1,    0.0,    0.6,    0.9,    1.1,    1.0,    1.0,    1.2,    0.8,    1.0,    1.0,    0.9,    1.2,    0.9,    0.7,   -0.1,   -0.7,   -0.6,   -1.0,   -0.8,  999.0,  999.0,  999.0,  999.0,    0.2,   -0.2,    0.2,   -0.7,   -0.9,   -1.4,  999.0,  999.0,  999.0,  999.0,  999.0,    0.8,  999.0,  999.0,  999.0,  999.0,  999.0,  999.0,  999.0,  999.0,  999.0,  999.0,  999.0,  999.0,  999.0,  999.0,  999.0,  999.0,  999.0,  999.0,  999.0,  999.0,  999.0,  999.0,  999.0,  999.0,  999.0,  999.0,  999.0,  999.0,  999.0,  999.0,  999.0,  999.0,  999.0,  999.0,  999.0,  999.0,  999.0,  999.0,  999.0,  999.0,  999.0,  999.0
2010/07/16 11:40,    0.0,    0.5,   -0.1,    1.2,    1.2,    1.5,    0.8,    0.9,    0.9,   -0.2,   -0.9,   -1.3,   -1.2,   -1.3,   -0.7,  999.0,   -1.5,   -1.4,   -1.1,   -1.5,   -1.6,   -1.4,   -1.2,   -0.7,   -0.1,    0.4,    0.5,    0.5,    0.7,    0.9,    1.1,    1.3,    1.3,    0.9,    0.2,    0.3,    0.1,  999.0,   -0.3,   -0.8,  999.0,  999.0,  999.0,   -1.0,   -0.5,  999.0,  999.0,   -1.8,   -1.1,   -1.3,  999.0,  999.0,  999.0,  999.0,  999.0,  999.0,  999.0,  999.0,  999.0,  999.0,  999.0,  999.0,  999.0,  999.0,  999.0,  999.0,  999.0,  999.0,  999.0,  999.0,  999.0,  999.0,  999.0,  999.0,  999.0,  999.0,  999.0,  999.0,  999.0,  999.0,  999.0,  999.0,  999.0,  999.0,  999.0,  999.0,  999.0,  999.0,  999.0,  999.0,  999.0,  999.0,  999.0,  999.0,  999.0,  999.0,  999.0,  999.0
2010/07/16 11:50,    0.0,   -0.2,   -0.2,    0.8,    1.7,    1.4,    1.0,    0.7,    0.1,    0.0,    0.0,    0.0,   -0.1,    0.3,   -0.1,   -0.2,   -0.1,    0.1,    0.2,    0.6,    0.7,    1.1,    1.5,    2.7,    2.2,    2.6,    2.4,    2.0,    2.4,    2.8,    2.5,    2.5,    1.8,    1.1,    1.2,    1.3,    1.7,    1.0,    1.6,  999.0,  999.0,  999.0,  999.0,  999.0,   -0.7,  999.0,  999.0,  999.0,   -1.7,  999.0,  999.0,  999.0,   -0.7,  999.0,  999.0,  999.0,  999.0,  999.0,  999.0,  999.0,  999.0,  999.0,  999.0,    1.4,    2.1,  999.0,  999.0,  999.0,  999.0,  999.0,  999.0,  999.0,  999.0,  999.0,  999.0,  999.0,  999.0,  999.0,  999.0,  999.0,  999.0,  999.0,  999.0,  999.0,  999.0,  999.0,  999.0,  999.0,  999.0,  999.0,  999.0,  999.0,  999.0,  999.0,  999.0,  999.0,  999.0,  999.0
2010/07/16 12:00,    0.1,   -0.2,   -0.0,    0.2,    1.3,   -0.4,    0.5,    0.6,    1.3,    0.6,   -0.3,   -0.3,   -0.6,   -0.4,   -0.5,   -0.5,   -0.6,   -0.3,    0.3,    0.3,    1.2,    1.8,    1.6,    1.3,    0.5,    0.7,    0.5,    2.2,    1.1,    2.4,    2.9,    5.2,    2.1,    2.2,    0.9,    1.2,  999.0,  999.0,  999.0,  999.0,  999.0,  999.0,  999.0,  999.0,  999.0,  999.0,  999.0,  999.0,  999.0,  999.0,  999.0,  999.0,  999.0,  999.0,  999.0,  999.0,  999.0,  999.0,  999.0,  999.0,  999.0,  999.0,  999.0,  999.0,  999.0,  999.0,  999.0,  999.0,  999.0,  999.0,  999.0,  999.0,  999.0,  999.0,  999.0,  999.0,  999.0,  999.0,  999.0,  999.0,  999.0,  999.0,  999.0,  999.0,  999.0,  999.0,  999.0,  999.0,  999.0,  999.0,  999.0,  999.0,  999.0,  999.0,  999.0,  999.0,  999.0,  999.0
2010/07/16 12:10,    0.0,    0.0,    0.2,    0.3,    0.0,    0.6,    0.2,   -0.6,   -1.3,   -1.2,   -1.0,   -1.1,   -1.2,   -1.4,   -1.4,   -1.7,   -0.6,   -0.7,   -0.9,   -0.8,   -0.0,   -0.4,   -0.7,   -0.5,   -0.7,   -0.2,   -0.2,   -0.6,   -0.8,   -0.1,   -0.0,   -1.6,  999.0,   -1.7,   -0.7,  999.0,  999.0,  999.0,  999.0,  999.0,  999.0,  999.0,  999.0,  999.0,  999.0,  999.0,  999.0,  999.0,  999.0,  999.0,  999.0,  999.0,  999.0,  999.0,  999.0,  999.0,  999.0,  999.0,  999.0,  999.0,  999.0,  999.0,  999.0,  999.0,  999.0,  999.0,  999.0,  999.0,  999.0,  999.0,  999.0,  999.0,  999.0,  999.0,  999.0,  999.0,  999.0,  999.0,  999.0,  999.0,  999.0,  999.0,  999.0,  999.0,  999.0,  999.0,  999.0,  999.0,  999.0,  999.0,  999.0,  999.0,  999.0,  999.0,  999.0,  999.0,  999.0,  999.0
2010/07/16 12:20,    0.1,   -0.2,   -1.2,    0.2,    0.3,    0.3,    0.3,   -0.0,   -0.5,   -0.5,   -0.1,   -0.3,   -0.8,   -0.6,   -0.6,   -0.5,   -0.3,   -0.7,   -1.1,   -0.9,   -0.8,   -0.8,   -1.3,   -1.6,   -1.9,   -1.1,   -1.2,   -0.5,   -0.5,   -0.3,   -1.7,   -1.2,   -1.3,   -0.2,   -0.5,  999.0,  999.0,  999.0,  999.0,  999.0,  999.0,  999.0,  999.0,  999.0,  999.0,  999.0,   -1.4,  999.0,  999.0,  999.0,  999.0,  999.0,  999.0,  999.0,  999.0,  999.0,  999.0,  999.0,  999.0,  999.0,  999.0,  999.0,  999.0,  999.0,  999.0,  999.0,  999.0,  999.0,  999.0,  999.0,  999.0,  999.0,  999.0,  999.0,  999.0,  999.0,  999.0,  999.0,  999.0,  999.0,  999.0,  999.0,  999.0,  999.0,  999.0,  999.0,  999.0,  999.0,  999.0,  999.0,  999.0,  999.0,  999.0,  999.0,  999.0,  999.0,  999.0,  999.0
2010/07/16 12:30,   -0.1,    1.5,    1.7,    1.2,    1.2,    1.3,    0.5,    0.2,    0.4,    0.6,    0.1,   -0.9,   -0.8,    3.4,    4.3,    4.1,    4.3,    4.3,    3.0,    3.1,    3.3,    4.3,    1.2,    0.9,    1.4,    1.3,   -0.5,    1.8,    0.3,   -4.3,   -1.6,   -2.5,   -1.5,   -2.4,   -2.1,    3.6,  999.0,    5.7,  999.0,  999.0,  999.0,  999.0,  999.0,   -0.2,   -1.4,  999.0,  999.0,  999.0,  999.0,  999.0,  999.0,  999.0,  999.0,  999.0,  999.0,  999.0,  999.0,  999.0,  999.0,  999.0,  999.0,  999.0,  999.0,  999.0,  999.0,  999.0,  999.0,  999.0,  999.0,  999.0,  999.0,  999.0,  999.0,  999.0,  999.0,  999.0,  999.0,  999.0,  999.0,  999.0,  999.0,  999.0,  999.0,  999.0,  999.0,  999.0,  999.0,  999.0,  999.0,  999.0,  999.0,  999.0,  999.0,  999.0,  999.0,  999.0,  999.0,  999.0
2010/07/16 12:40,    3.9,  999.0,   -0.4,   -0.6,   -0.0,  999.0,  999.0,    0.1,    0.6,    1.2,    0.9,    0.6,    2.1,    0.5,   -1.4,   -2.3,   -0.4,    0.8,    0.9,    0.5,    0.2,    1.1,    0.1,    1.0,    0.7,   -0.3,   -0.5,   -0.8,   -0.5,   -1.6,   -1.0,   -1.0,   -0.2,    0.3,   -0.9,  999.0,  999.0,  999.0,  999.0,  999.0,  999.0,  999.0,  999.0,   -1.1,  999.0,   -2.5,  999.0,  999.0,   -2.0,  999.0,  999.0,  999.0,  999.0,  999.0,  999.0,  999.0,  999.0,  999.0,  999.0,  999.0,  999.0,  999.0,  999.0,  999.0,  999.0,  999.0,  999.0,  999.0,  999.0,  999.0,  999.0,  999.0,  999.0,  999.0,  999.0,  999.0,  999.0,  999.0,  999.0,  999.0,  999.0,  999.0,  999.0,  999.0,  999.0,  999.0,  999.0,  999.0,  999.0,  999.0,  999.0,  999.0,  999.0,  999.0,  999.0,  999.0,  999.0,  999.0
2010/07/16 12:50,    0.1,    0.6,    0.7,    1.1,   -0.4,   -0.3,   -0.3,    0.3,    0.2,    0.6,    0.5,   -0.2,   -0.4,   -0.4,   -0.2,   -0.3,   -0.2,   -0.2,   -1.3,   -1.6,   -1.5,   -1.6,   -1.2,   -1.0,   -0.8,   -0.7,   -0.4,   -1.0,   -1.6,   -0.8,   -1.3,   -2.1,   -1.3,   -0.6,   -0.2,    0.3,   -0.0,   -0.5,  999.0,  999.0,  999.0,  999.0,   -1.1,   -0.3,  999.0,   -1.4,   -2.9,  999.0,  999.0,  999.0,  999.0,  999.0,  999.0,  999.0,  999.0,  999.0,  999.0,  999.0,  999.0,  999.0,  999.0,  999.0,  999.0,  999.0,  999.0,  999.0,  999.0,  999.0,  999.0,  999.0,  999.0,  999.0,  999.0,  999.0,  999.0,  999.0,  999.0,  999.0,  999.0,  999.0,  999.0,  999.0,  999.0,  999.0,  999.0,  999.0,  999.0,  999.0,  999.0,  999.0,  999.0,  999.0,  999.0,  999.0,  999.0,  999.0,  999.0,  999.0
2010/07/16 13:00,   -0.1,    0.3,    0.3,   -0.1,   -0.5,    0.0,    0.4,    0.6,    0.7,    0.9,    0.2,   -0.7,   -1.0,   -0.9,   -0.6,   -0.2,    0.1,    0.1,    0.3,   -0.1,   -0.1,   -0.2,   -0.7,   -1.4,   -1.1,   -1.9,   -0.9,   -1.0,   -1.2,   -0.7,   -0.5,   -1.4,    0.1,   -1.2,    1.1,    0.4,  999.0,  999.0,    0.7,  999.0,  999.0,   -0.9,   -1.3,   -1.3,   -2.1,   -2.2,  999.0,  999.0,  999.0,  999.0,  999.0,  999.0,  999.0,  999.0,  999.0,  999.0,  999.0,  999.0,  999.0,  999.0,  999.0,  999.0,  999.0,  999.0,  999.0,  999.0,  999.0,  999.0,  999.0,  999.0,  999.0,  999.0,  999.0,  999.0,  999.0,  999.0,  999.0,  999.0,  999.0,  999.0,  999.0,  999.0,  999.0,  999.0,  999.0,  999.0,  999.0,  999.0,  999.0,  999.0,  999.0,  999.0,  999.0,  999.0,  999.0,  999.0,  999.0,  999.0
2010/07/16 13:10,    0.1,    0.7,    0.6,    1.4,    1.2,    1.1,    0.9,    0.4,   -0.2,    0.0,    0.1,   -0.2,    0.1,    0.1,    0.4,    0.5,    0.4,   -0.3,   -0.6,   -0.8,   -0.8,   -0.4,    0.3,    0.7,    0.7,    0.7,    0.5,    0.4,    0.0,    0.3,    1.5,    0.9,   -0.5,    1.7,    0.3,    0.6,    1.1,    0.5,    0.6,  999.0,  999.0,  999.0,   -0.9,   -2.1,   -2.4,   -2.0,  999.0,   -4.2,  999.0,  999.0,   -2.6,  999.0,  999.0,  999.0,  999.0,  999.0,  999.0,  999.0,  999.0,  999.0,  999.0,  999.0,  999.0,  999.0,  999.0,  999.0,  999.0,  999.0,  999.0,  999.0,  999.0,  999.0,  999.0,  999.0,  999.0,  999.0,  999.0,  999.0,  999.0,  999.0,  999.0,  999.0,  999.0,  999.0,  999.0,  999.0,  999.0,  999.0,  999.0,  999.0,  999.0,  999.0,  999.0,  999.0,  999.0,  999.0,  999.0,  999.0
2010/07/16 13:20,    0.0,    0.4,   -0.1,    0.7,    1.3,    1.0,    0.5,    0.6,    0.8,    0.7,    0.6,    0.5,    0.8,    0.5,   -0.2,   -0.4,   -0.5,   -0.4,   -0.5,   -0.3,   -0.0,    0.5,    0.6,    0.9,    0.3,   -0.2,   -1.0,   -1.3,   -1.9,   -2.2,   -2.5,   -2.7,   -3.1,   -2.6,   -2.6,   -2.4,  999.0,   -1.7,   -1.9,  999.0,  999.0,  999.0,  999.0,   -2.4,  999.0,  999.0,  999.0,  999.0,   -4.0,   -2.4,   -2.3,   -1.2,  999.0,  999.0,  999.0,  999.0,  999.0,  999.0,  999.0,  999.0,  999.0,  999.0,  999.0,  999.0,  999.0,  999.0,  999.0,  999.0,  999.0,  999.0,  999.0,  999.0,  999.0,  999.0,  999.0,  999.0,  999.0,  999.0,  999.0,  999.0,  999.0,  999.0,  999.0,  999.0,  999.0,  999.0,  999.0,  999.0,  999.0,  999.0,  999.0,  999.0,  999.0,  999.0,  999.0,  999.0,  999.0,  999.0
2010/07/16 13:30,   -0.0,   -0.5,   -0.4,   -0.5,   -0.5,    0.3,   -0.6,   -0.9,   -1.7,   -1.8,   -0.6,   -0.1,    1.1,    0.6,    0.5,   -0.5,   -0.8,   -1.3,   -0.9,   -0.2,    0.7,    0.7,    0.1,   -0.0,    0.1,    0.1,    0.3,    0.2,    0.7,    0.0,    0.1,   -0.5,   -0.8,   -1.5,   -0.6,  999.0,  999.0,  999.0,   -1.0,  999.0,  999.0,  999.0,   -1.6,   -1.4,  999.0,  999.0,  999.0,  999.0,  999.0,  999.0,  999.0,  999.0,  999.0,  999.0,  999.0,  999.0,  999.0,  999.0,  999.0,  999.0,  999.0,  999.0,  999.0,  999.0,  999.0,  999.0,  999.0,  999.0,  999.0,  999.0,  999.0,  999.0,  999.0,  999.0,  999.0,  999.0,  999.0,  999.0,  999.0,  999.0,  999.0,  999.0,  999.0,  999.0,  999.0,  999.0,  999.0,  999.0,  999.0,  999.0,  999.0,  999.0,  999.0,  999.0,  999.0,  999.0,  999.0,  999.0
2010/07/16 13:40,    0.1,   -0.1,    0.6,    1.1,    0.8,    0.8,    0.7,    0.5,   -0.1,   -0.4,   -0.0,    2.0,    2.0,    0.1,    0.4,    0.5,    0.0,   -0.0,    0.5,    0.4,    0.4,    0.4,    0.3,    0.3,    0.6,    0.9,    0.8,    0.6,    0.7,    0.6,    0.3,    0.7,  999.0,  999.0,   -1.2,  999.0,  999.0,   -1.9,  999.0,  999.0,  999.0,   -2.4,  999.0,  999.0,  999.0,  999.0,   -1.8,   -1.2,  999.0,  999.0,  999.0,  999.0,  999.0,  999.0,  999.0,  999.0,  999.0,  999.0,  999.0,  999.0,  999.0,  999.0,  999.0,  999.0,  999.0,  999.0,  999.0,  999.0,  999.0,  999.0,  999.0,  999.0,  999.0,  999.0,  999.0,  999.0,  999.0,  999.0,  999.0,  999.0,  999.0,  999.0,  999.0,  999.0,  999.0,  999.0,  999.0,  999.0,  999.0,  999.0,  999.0,  999.0,  999.0,  999.0,  999.0,  999.0,  999.0,  999.0
2010/07/16 13:50,    0.2,    0.3,   -0.2,    0.1,    0.3,    0.0,    0.1,   -0.6,   -0.9,    0.2,    0.1,  999.0,    0.2,    0.3,    0.3,    0.5,    0.5,    0.5,    0.6,    0.9,    1.1,    1.5,    2.1,    2.1,    2.5,    2.4,    2.2,    2.8,    1.2,    1.5,    1.4,    0.9,    0.3,  999.0,   -0.6,   -1.2,   -2.1,   -2.6,   -2.3,  999.0,  999.0,  999.0,  999.0,  999.0,  999.0,  999.0,  999.0,  999.0,  999.0,  999.0,  999.0,  999.0,  999.0,  999.0,  999.0,  999.0,  999.0,  999.0,  999.0,  999.0,  999.0,  999.0,  999.0,  999.0,  999.0,  999.0,  999.0,  999.0,  999.0,  999.0,  999.0,  999.0,  999.0,  999.0,  999.0,  999.0,  999.0,  999.0,  999.0,  999.0,  999.0,  999.0,  999.0,  999.0,  999.0,  999.0,  999.0,  999.0,  999.0,  999.0,  999.0,  999.0,  999.0,  999.0,  999.0,  999.0,  999.0,  999.0
2010/07/16 14:00,    0.5,    0.3,    0.6,   -0.2,    0.5,    0.2,    0.5,   -0.3,   -0.5,    0.2,    0.9,    0.3,    0.7,    0.6,    0.5,    2.3,    1.9,    3.3,    3.6,    4.2,    4.3,    5.1,    4.6,    4.8,    3.7,    2.6,    2.1,    1.8,    1.8,    0.5,    0.8,    1.1,   -0.0,   -1.0,   -0.9,   -1.9,  999.0,   -3.3,   -2.8,  999.0,   -2.2,  999.0,  999.0,  999.0,  999.0,  999.0,  999.0,  999.0,  999.0,  999.0,  999.0,  999.0,  999.0,  999.0,  999.0,  999.0,  999.0,  999.0,  999.0,  999.0,  999.0,  999.0,  999.0,  999.0,  999.0,  999.0,  999.0,  999.0,  999.0,  999.0,  999.0,  999.0,  999.0,  999.0,  999.0,  999.0,  999.0,  999.0,  999.0,  999.0,  999.0,  999.0,  999.0,  999.0,  999.0,  999.0,  999.0,  999.0,  999.0,  999.0,  999.0,  999.0,  999.0,  999.0,  999.0,  999.0,  999.0,  999.0
2010/07/16 14:10,  999.0,    1.3,    0.1,  999.0,    0.1,    0.6,    0.1,   -0.3,    0.6,    0.6,    1.7,    0.9,    1.1,    1.7,    1.5,    2.3,    2.2,    1.5,    0.9,  999.0,    0.5,   -0.3,    0.3,   -0.5,   -0.1,   -0.1,    0.1,    0.4,  999.0,  999.0,  999.0,   -1.5,   -1.4,   -2.1,   -2.6,   -2.8,  999.0,  999.0,  999.0,  999.0,  999.0,  999.0,  999.0,  999.0,  999.0,  999.0,   -1.1,   -1.5,  999.0,  999.0,   -1.3,  999.0,  999.0,  999.0,  999.0,  999.0,  999.0,  999.0,  999.0,  999.0,  999.0,  999.0,  999.0,  999.0,  999.0,  999.0,  999.0,  999.0,  999.0,  999.0,  999.0,  999.0,  999.0,  999.0,  999.0,  999.0,  999.0,  999.0,  999.0,  999.0,  999.0,  999.0,  999.0,  999.0,  999.0,  999.0,  999.0,  999.0,  999.0,  999.0,  999.0,  999.0,  999.0,  999.0,  999.0,  999.0,  999.0,  999.0
2010/07/16 14:20,  999.0,  999.0,   -1.0,    0.2,    0.8,   -0.4,    1.2,    0.7,    0.4,    0.6,    0.4,    1.1,    0.9,    0.3,    0.2,   -0.4,   -0.6,   -1.6,   -2.0,   -1.4,   -1.5,   -1.4,   -1.3,   -0.6,   -0.1,   -0.3,   -0.5,  999.0,  999.0,  999.0,   -2.7,   -3.0,   -3.0,   -2.7,   -2.1,  999.0,  999.0,   -2.5,  999.0,  999.0,  999.0,  999.0,  999.0,  999.0,  999.0,  999.0,  999.0,   -1.7,  999.0,  999.0,   -1.3,  999.0,  999.0,  999.0,  999.0,  999.0,  999.0,  999.0,  999.0,  999.0,  999.0,  999.0,  999.0,  999.0,  999.0,  999.0,  999.0,  999.0,  999.0,  999.0,  999.0,  999.0,  999.0,  999.0,  999.0,  999.0,  999.0,  999.0,  999.0,  999.0,  999.0,  999.0,  999.0,  999.0,  999.0,  999.0,  999.0,  999.0,  999.0,  999.0,  999.0,  999.0,  999.0,  999.0,  999.0,  999.0,  999.0,  999.0
2010/07/16 14:30,  999.0,   -0.1,  999.0,    0.5,   -0.0,   -0.3,    0.5,    0.6,    0.6,    1.2,    0.8,    0.2,    0.1,    1.0,    0.7,   -0.0,   -0.5,   -0.7,   -0.8,   -1.0,   -1.0,   -0.5,    0.2,    0.8,   -0.2,   -1.0,  999.0,   -0.3,   -1.3,   -1.2,   -1.3,   -1.5,   -1.3,  999.0,   -0.9,   -1.2,   -1.2,   -1.5,  999.0,  999.0,  999.0,  999.0,  999.0,  999.0,  999.0,  999.0,  999.0,  999.0,  999.0,  999.0,  999.0,  999.0,  999.0,  999.0,  999.0,  999.0,  999.0,  999.0,  999.0,  999.0,  999.0,  999.0,  999.0,  999.0,  999.0,  999.0,  999.0,  999.0,  999.0,  999.0,  999.0,  999.0,  999.0,  999.0,  999.0,  999.0,  999.0,  999.0,  999.0,  999.0,  999.0,  999.0,  999.0,  999.0,  999.0,  999.0,  999.0,  999.0,  999.0,  999.0,  999.0,  999.0,  999.0,  999.0,  999.0,  999.0,  999.0,  999.0
2010/07/16 14:40,    0.0,   -0.1,    0.2,    0.2,   -0.5,   -0.6,   -0.1,   -0.1,   -0.1,   -0.0,    0.0,    0.7,   -0.3,    0.1,    0.5,   -0.7,   -0.9,   -1.2,   -1.5,   -1.3,   -0.4,    0.4,    0.7,    0.8,    0.5,    0.7,    0.7,   -0.1,   -0.5,   -0.3,   -0.7,   -0.8,   -0.4,  999.0,   -0.6,  999.0,   -0.6,   -1.2,   -1.7,   -3.1,   -3.3,  999.0,  999.0,  999.0,  999.0,   -1.6,   -1.5,  999.0,  999.0,  999.0,  999.0,  999.0,  999.0,  999.0,  999.0,  999.0,  999.0,  999.0,  999.0,  999.0,  999.0,  999.0,  999.0,  999.0,  999.0,  999.0,  999.0,  999.0,  999.0,  999.0,  999.0,  999.0,  999.0,  999.0,  999.0,  999.0,  999.0,  999.0,  999.0,  999.0,  999.0,  999.0,  999.0,  999.0,  999.0,  999.0,  999.0,  999.0,  999.0,  999.0,  999.0,  999.0,  999.0,  999.0,  999.0,  999.0,  999.0,  999.0
2010/07/16 14:50,    0.1,   -0.3,   -0.1,    0.1,    0.3,    0.2,    0.3,   -0.2,   -0.4,   -0.4,   -0.1,   -0.4,   -0.5,   -1.6,   -1.4,   -2.4,   -2.5,   -0.8,   -1.5,   -1.2,    0.2,   -0.3,    0.3,    0.5,    0.6,   -0.2,   -0.1,   -0.2,   -0.6,   -1.0,   -0.7,   -0.6,   -0.1,   -0.5,  999.0,  999.0,  999.0,  999.0,    0.2,  999.0,  999.0,  999.0,  999.0,  999.0,  999.0,  999.0,   -0.9,   -0.7,  999.0,  999.0,  999.0,  999.0,  999.0,  999.0,  999.0,  999.0,  999.0,  999.0,  999.0,  999.0,  999.0,  999.0,  999.0,  999.0,  999.0,  999.0,  999.0,  999.0,  999.0,  999.0,  999.0,  999.0,  999.0,  999.0,  999.0,  999.0,  999.0,  999.0,  999.0,  999.0,  999.0,  999.0,  999.0,  999.0,  999.0,  999.0,  999.0,  999.0,  999.0,  999.0,  999.0,  999.0,  999.0,  999.0,  999.0,  999.0,  999.0,  999.0
2010/07/16 15:00,    0.1,    0.2,    0.8,    0.3,    0.6,    0.6,    1.1,    0.9,    0.5,    0.9,    0.2,    0.6,    0.2,   -0.0,   -0.1,   -0.2,   -0.4,    0.2,   -0.6,    0.1,    0.3,    0.6,   -0.0,   -1.2,   -0.1,   -0.2,    0.1,   -0.8,   -1.3,  999.0,   -1.9,   -0.6,   -3.0,   -2.1,   -2.1,   -0.8,    0.8,    0.1,    0.8,    0.0,  999.0,  999.0,  999.0,  999.0,  999.0,  999.0,  999.0,  999.0,  999.0,   -1.7,   -1.6,   -1.8,   -2.6,   -3.3,   -3.0,   -3.0,  999.0,  999.0,  999.0,  999.0,  999.0,  999.0,  999.0,  999.0,  999.0,  999.0,  999.0,  999.0,  999.0,  999.0,  999.0,  999.0,  999.0,  999.0,  999.0,  999.0,  999.0,  999.0,  999.0,  999.0,  999.0,  999.0,  999.0,  999.0,  999.0,  999.0,  999.0,  999.0,  999.0,  999.0,  999.0,  999.0,  999.0,  999.0,  999.0,  999.0,  999.0,  999.0
2010/07/16 15:10,   -0.2,   -0.0,    0.1,  999.0,    1.1,    0.4,    0.6,    0.9,    0.9,    0.9,    1.1,    0.3,   -0.2,   -0.2,    0.4,    1.0,    0.9,    1.3,    1.5,    1.1,    1.4,    1.5,    1.4,    0.7,    0.9,    0.0,   -0.8,   -1.3,   -1.5,   -1.6,   -1.9,   -2.2,   -1.7,   -1.7,   -1.2,   -1.3,   -1.4,   -1.3,   -0.8,   -0.2,   -0.6,   -0.5,   -1.0,  999.0,  999.0,  999.0,  999.0,  999.0,  999.0,  999.0,   -1.6,   -2.0,   -2.2,   -2.2,   -2.0,  999.0,  999.0,  999.0,  999.0,  999.0,  999.0,  999.0,  999.0,  999.0,  999.0,  999.0,  999.0,  999.0,  999.0,  999.0,  999.0,  999.0,  999.0,  999.0,  999.0,  999.0,  999.0,  999.0,  999.0,  999.0,  999.0,  999.0,  999.0,  999.0,  999.0,  999.0,  999.0,  999.0,  999.0,  999.0,  999.0,  999.0,  999.0,  999.0,  999.0,  999.0,  999.0,  999.0
2010/07/16 15:20,   -0.3,    0.2,    0.3,    0.8,   -0.0,   -0.5,   -0.5,   -0.2,    0.3,    0.7,    0.7,    1.0,    0.6,    1.5,    0.9,    0.6,    0.1,    0.0,   -0.5,   -0.5,    0.8,    1.4,    1.7,    1.1,   -1.8,   -2.3,   -2.9,   -3.1,   -3.3,   -3.6,   -5.1,   -2.9,   -1.5,   -2.8,   -2.5,    0.8,   -0.1,    0.8,    0.3,   -0.2,    0.1,    0.2,    1.0,    1.2,    0.5,    4.2,    0.7,    1.3,  999.0,    2.3,    2.5,  999.0,  999.0,  999.0,    2.2,    1.1,    1.4,  999.0,  999.0,  999.0,  999.0,  999.0,  999.0,  999.0,  999.0,  999.0,  999.0,  999.0,  999.0,  999.0,  999.0,  999.0,  999.0,  999.0,  999.0,  999.0,  999.0,  999.0,  999.0,  999.0,  999.0,  999.0,  999.0,  999.0,  999.0,   -2.3,   -2.9,   -3.0,   -3.2,  999.0,   -3.5,  999.0,  999.0,  999.0,  999.0,  999.0,  999.0,  999.0
2010/07/16 15:30,    0.6,    1.1,    1.5,    0.8,    0.5,    0.3,   -0.1,   -0.3,    0.4,    1.9,    2.5,    0.4,    0.6,    0.8,    0.2,   -0.5,   -4.2,   -2.0,    2.7,    1.4,    2.8,    3.0,    3.1,    3.0,    0.9,    0.7,   -0.0,    0.9,    0.5,   -1.4,    0.3,    0.6,    0.5,    0.6,    0.6,    0.8,    1.1,    1.2,    1.7,    2.2,    2.7,    2.2,    4.5,    4.1,    2.6,    2.6,    4.5,    0.7,   -1.4,   -1.0,   -1.7,   -2.0,   -2.5,   -2.7,   -2.8,   -2.0,   -2.0,   -1.6,   -1.4,   -1.7,    0.1,  999.0,  999.0,  999.0,  999.0,  999.0,  999.0,  999.0,  999.0,  999.0,  999.0,  999.0,  999.0,  999.0,  999.0,  999.0,  999.0,  999.0,  999.0,  999.0,  999.0,  999.0,  999.0,  999.0,  999.0,  999.0,   -3.4,   -3.3,   -3.3,   -2.2,   -1.3,   -0.4,  999.0,  999.0,  999.0,  999.0,  999.0,  999.0
2010/07/16 15:40,    1.2,    0.6,    0.9,    0.8,    1.0,    0.3,    0.2,    0.1,   -0.4,   -0.4,   -0.4,   -0.1,    0.4,    0.7,    0.6,    0.9,    1.2,   -0.2,   -0.8,   -0.6,   -1.1,   -1.4,   -1.8,   -1.4,   -1.0,   -1.8,   -2.9,   -2.2,   -2.7,    3.5,    3.9,    2.7,    1.0,    0.9,   -2.6,   -2.0,   -2.9,   -2.8,   -2.8,   -3.2,   -3.7,   -4.2,   -4.9,   -6.1,   -5.1,   -5.5,   -4.7,   -4.8,   -5.3,   -5.2,   -3.7,   -3.3,   -2.9,   -1.6,   -1.8,   -3.0,   -2.7,   -1.4,   -0.8,   -2.1,   -0.9,    0.6,  999.0,   -1.0,   -1.0,   -0.4,   -0.8,   -0.9,   -0.6,    0.2,   -1.8,  999.0,  999.0,  999.0,  999.0,  999.0,  999.0,   -0.3,   -0.6,   -1.3,   -1.0,   -1.8,   -1.8,    1.1,    0.2,   -0.3,   -0.5,    0.6,   -0.7,    1.3,    1.8,    1.1,    1.6,  999.0,    2.9,    2.8,    2.8,    2.7
2010/07/16 15:50,    2.9,    2.0,    0.9,    0.1,   -0.1,    0.2,   -0.4,   -1.4,   -1.6,   -1.3,   -0.7,   -1.0,    0.1,    0.2,    0.8,    0.5,    0.2,   -0.9,   -0.8,   -2.1,   -2.1,    0.6,   -0.2,    2.7,   -4.1,    7.5,    7.7,   11.9,   14.8,   18.3,   18.9,   20.9,   12.0,    7.0,    3.9,   -1.4,   -1.1,   -1.3,   -1.2,   -1.0,    0.2,    0.3,    1.1,    1.3,    2.3,    1.1,    2.0,    2.3,    1.8,   -1.9,    1.2,    2.2,    1.6,    1.5,    1.6,    1.7,    2.8,    1.6,    1.7,    0.6,    2.9,    2.5,    1.6,    1.9,    3.6,    1.9,    0.7,    2.9,    3.5,    1.9,    1.4,    1.6,    3.7,    1.3,  999.0,   -1.8,    3.1,  999.0,   -1.5,  999.0,    0.5,   -0.8,    5.8,  999.0,    5.2,    4.6,    3.8,    3.4,   -2.4,   -1.3,    2.6,    2.7,    2.8,    0.9,    4.0,    3.8,    3.9,    5.9
2010/07/16 16:00,    2.2,    1.1,    1.0,    1.0,    0.4,   -0.4,   -0.6,    0.2,   -0.3,   -0.4,    0.9,    0.1,    1.3,    0.5,   -0.2,   -1.1,   -1.8,   -4.0,   -4.9,   -4.0,   -3.1,   -5.8,    7.5,    2.5,   11.7,    9.8,    4.9,    4.9,   -0.8,    5.6,   -1.0,  -13.5,   -9.6,  -15.8,  -16.5,   -9.2,   -9.5,  -14.8,  -14.3,  -13.0,  -15.1,   -7.6,   -5.4,   -9.8,  999.0,   -5.4,   -1.1,   -2.6,   -2.4,  999.0,   -5.9,   -3.9,   -3.6,   -1.2,   -0.2,    0.1,    2.1,   -4.1,  999.0,    6.1,  999.0,  999.0,    3.5,    3.3,    4.4,    5.0,    5.4,    7.2,    0.1,    6.6,    6.0,  999.0,  999.0,    7.1,  999.0,  999.0,    7.4,   10.8,  999.0,    6.2,  999.0,    3.6,  999.0,    0.2,    2.4,  999.0,    2.0,  999.0,   -2.0,  999.0,  999.0,   -3.9,  999.0,   -2.7,  999.0,  999.0,  999.0,  999.0
2010/07/16 16:10,    3.5,  -11.9,   -6.4,    4.0,    3.5,    3.4,    4.2,    4.1,    4.4,   -0.3,  999.0,   -8.0,    6.1,    4.5,    5.8,    4.9,    4.0,    1.8,    1.0,    0.1,   -1.2,   -2.2,   -3.2,   -5.1,    2.7,    2.2,   -0.9,    1.9,    2.5,    1.0,    1.5,   -0.6,    0.2,   -0.7,   -9.9,  999.0,   -9.4,  999.0,    2.4,  999.0,    0.6,  999.0,    0.2,   -0.6,    0.7,   -0.2,    1.1,  999.0,    0.8,    1.2,    0.7,    3.5,   -1.2,    1.0,  999.0,    0.3,    5.0,    3.6,    2.2,    4.1,    2.1,    0.4,   -4.0,   -3.4,   -3.9,   -6.7,   -1.7,   -5.8,   -3.1,   -1.3,   -6.7,    1.6,   -0.8,    0.1,    0.1,    0.3,    1.1,  999.0,  999.0,  999.0,  999.0,  999.0,  999.0,  999.0,  999.0,  999.0,  999.0,    1.2,   -1.4,  999.0,  999.0,   -1.0,    4.7,    2.5,   -3.2,   -1.2,    3.0,   -0.3
2010/07/16 16:20,    3.7,    2.7,    2.2,    2.1,    1.8,    1.0,   -1.5,   -2.6,   -3.4,   -3.1,   -0.2,   -0.6,   -0.9,    0.3,    0.4,   -2.7,    0.4,   -0.5,   -1.5,   -1.9,   -2.6,   -3.5,   -1.9,   -2.3,   -2.1,   -1.3,    0.3,   -0.2,    0.3,    0.7,    0.3,    0.8,    2.8,    2.2,    2.6,    2.8,    1.8,    0.2,    1.3,   -0.1,  999.0,    2.3,    0.5,   -1.6,   -1.2,   -0.6,   -0.7,    0.5,   -1.0,    0.4,   -0.3,    1.8,    2.5,    1.0,   -0.4,   -0.2,   -0.1,   -1.0,   -0.1,   -1.1,   -3.9,   -3.3,   -1.1,   -0.9,   -0.9,   -2.2,    0.5,   -0.1,   -1.3,   -2.0,    0.5,   -1.5,   -2.4,   -2.1,   -1.4,   -2.4,   -3.4,   -4.0,   -3.4,   -3.6,   -4.1,   -3.4,   -2.2,   -2.4,    0.7,   -0.4,   -0.6,   -2.2,    2.1,    0.8,    2.2,    1.8,    2.0,    2.6,    3.0,    3.3,    3.0,    2.9
2010/07/16 16:30,   -5.5,   -4.9,  -11.0,  -11.5,   -8.2,    2.4,    2.8,    2.4,    2.0,    2.0,    1.2,    0.4,    0.4,    0.7,    0.6,    0.6,   -0.7,    0.0,   -0.4,    9.9,   -1.6,   -1.7,   -3.2,   -3.3,   -2.2,    5.0,   -0.5,    1.3,    1.5,    1.1,    1.6,    1.6,   15.8,    2.8,    3.1,    9.7,    7.7,    3.0,   18.2,    2.8,    0.9,    0.8,    1.3,   14.1,    6.8,   -1.6,   -1.7,   -1.1,   -1.2,   -0.9,   -0.1,   -1.6,   -1.1,   -0.4,   -0.8,  999.0,  999.0,  999.0,  999.0,   -1.1,  999.0,   -0.5,    2.7,    0.9,   -0.2,   -0.2,   -0.9,  999.0,   -0.4,  999.0,    5.7,    1.8,    4.7,   -2.0,  999.0,    3.0,    2.0,   -0.6,    3.9,    3.2,    4.8,    5.9,    7.7,    3.1,    2.7,    4.6,  999.0,    6.2,    3.8,  999.0,    8.3,  999.0,  999.0,   -2.1,  999.0,  999.0,    3.8,    0.9
2010/07/16 16:40,    6.3,    5.4,    4.9,    2.5,    3.1,    2.8,    2.6,    2.3,    1.6,    2.2,    6.3,    2.9,    3.1,    2.5,    2.8,    2.8,    0.4,    2.0,    1.3,    1.0,    0.3,   -0.5,   -0.4,   -0.6,   -0.3,    0.5,    2.3,    3.3,    3.1,    5.0,    3.8,    0.4,    1.8,    1.5,    2.1,    2.1,    2.5,    1.3,    1.7,    2.6,    1.8,    0.6,    2.1,    0.2,    1.6,    2.6,    1.7,    1.7,    1.2,    0.8,    1.6,    1.8,    1.8,    1.7,    0.8,    0.4,    0.8,    2.2,    2.6,    0.2,   -2.1,    2.1,    1.3,  999.0,    2.5,  999.0,    3.5,    5.7,    1.9,    4.7,    4.6,    4.7,  999.0,    6.6,    4.8,    5.1,    4.0,    5.5,    4.9,    4.5,    3.0,  999.0,    3.7,  999.0,    4.4,  999.0,    6.2,    6.3,  999.0,  999.0,  999.0,    5.4,    5.6,  999.0,   13.9,    1.9,    1.7,  999.0
2010/07/16 16:50,    8.7,    8.6,    7.5,    5.4,    3.7,    3.0,    2.0,    2.6,    1.8,    1.8,    1.3,    0.8,    1.2,    1.2,    1.4,    0.5,    1.2,    1.3,    2.4,    2.5,    1.5,    0.3,    0.5,   -0.3,    0.0,    1.3,    2.2,    2.2,   -0.3,    2.6,   -0.3,   -1.9,   -3.5,   -2.3,   -3.1,   -0.6,   -0.5,   -0.5,   -1.0,  999.0,   -1.2,  999.0,   -0.8,   -0.3,    0.8,    0.2,   -0.2,    1.5,    1.6,    1.4,    1.6,    0.5,    1.9,    1.8,    1.4,    1.3,    1.9,    1.2,    2.2,    3.4,    4.0,    5.7,    6.5,    5.4,    3.0,    4.7,    5.5,    6.2,    6.5,    6.6,    6.5,    6.1,    8.7,    7.1,    8.3,    9.6,    8.2,    7.9,    6.7,    7.8,    8.1,    7.5,    5.9,    5.6,    5.7,    5.6,    5.9,    6.0,    5.1,    5.6,    5.5,    5.0,    5.5,    3.7,    4.4,    4.6,    4.3,    3.4
2010/07/16 17:00,  -10.5,  -18.7,  -20.0,  -12.6,   -6.5,   -3.8,   -1.2,   -0.5,   -0.4,   -3.3,    3.2,    3.2,    2.8,    1.9,    1.3,    1.8,    1.6,    2.4,    2.5,    3.3,  999.0,   -0.8,    1.1,   -4.2,   -6.0,   -4.7,    0.0,   -4.4,    1.6,   -1.6,   -1.0,   -0.4,   -3.1,   -3.3,   -2.9,   -4.6,   -4.4,   -5.4,   -5.3,   -4.7,   -2.1,   -4.5,   -2.6,   -3.2,   -2.4,   -1.9,   -0.1,    0.8,    1.5,    3.1,    0.6,    3.9,    5.3,    4.5,    6.9,    8.1,   10.9,   10.0,    9.5,    7.0,    3.9,    1.4,   -5.3,    9.5,   -4.9,    3.0,   12.1,   11.6,   13.1,   13.1,   14.1,   12.5,   11.9,   13.1,   10.2,   10.7,    8.9,    7.4,    8.0,    5.0,    6.1,    4.8,    6.3,    3.4,    3.0,    1.8,   -2.0,   -0.9,   -2.2,   -3.3,   -3.8,   -3.6,   -4.7,   -2.0,   -3.1,   -1.5,   -1.9,   -1.5
2010/07/16 17:10,  -25.9,  -26.3,  -26.1,  -27.2,  -27.2,  -27.9,  -27.4,  -19.2,  -20.4,   -4.1,   -6.3,    1.5,    5.2,    4.6,    4.3,    4.2,    3.2,    3.4,    4.1,    5.2,    1.4,    2.2,    4.7,    4.6,    5.8,  999.0,    4.6,    5.1,    3.7,    2.7,    1.4,    1.2,    1.0,    0.4,   -0.4,   -1.4,   -1.6,   -1.7,   -1.7,   -1.2,   -0.5,   -0.2,    0.5,    0.0,   -0.2,   -0.3,   -1.2,   -2.5,   -1.3,   -2.2,   -1.4,   -0.8,   -1.4,   -0.6,   -0.6,   -0.1,   -1.2,   -0.2,    4.2,    3.2,    1.3,    2.0,    2.3,    2.8,    4.9,    5.8,    3.5,    5.5,    5.5,    3.0,    5.0,    5.6,    4.9,    6.2,    8.2,    8.3,    6.8,    5.7,    8.3,    5.9,    5.1,    5.0,    4.9,    3.3,    4.1,    3.8,    3.4,    4.1,    3.7,    2.9,    3.8,    2.3,    1.5,    2.1,    2.4,    3.0,    2.3,    3.3
2010/07/16 17:20,  -24.3,  -16.9,    2.5,    3.7,  -17.8,   -9.1,   -9.5,   -9.4,   -2.6,   -1.3,   -1.7,    3.6,    3.5,   -5.5,  -18.3,  -18.7,  -11.4,    6.0,  -11.7,    4.5,    3.4,    1.0,    4.4,    4.5,    4.3,    3.7,    3.2,    2.6,    2.5,    1.8,    1.2,    1.5,    0.9,    0.3,   -0.6,   -1.5,   -2.9,   -3.3,   -2.5,   -2.7,   -2.5,   -2.9,   -2.9,   -2.6,   -3.0,   -3.4,   -3.7,   -4.9,   -3.7,   -2.0,   -3.0,   -0.1,    0.1,   -0.4,   -1.9,   -1.4,   -1.6,   -1.5,   -1.3,   -0.9,   -0.6,   -0.2,    0.1,   -0.0,   -2.1,   -0.2,   -1.8,    0.2,    0.8,    2.3,   -0.1,    2.2,    2.2,   -2.2,    0.6,   -1.7,    1.7,    2.1,    3.1,    3.3,    3.3,    3.3,    2.5,    2.0,    0.0,    0.5,   -1.5,  999.0,  999.0,    1.0,    4.1,    5.5,  999.0,    3.2,    5.0,    5.7,    4.6,    4.5
2010/07/16 17:30,    8.0,    7.4,    7.1,    7.6,    7.4,    7.8,    7.7,    7.6,    7.4,    7.4,    7.1,    7.0,    7.2,    7.1,    6.9,    6.6,    6.3,    5.6,    4.6,    4.6,    4.6,    3.9,    4.4,    5.0,    3.8,    3.3,    3.3,    2.8,    3.5,    4.6,    4.9,    4.6,    3.9,    3.5,    2.4,    2.8,    3.2,    4.2,    5.2,    5.4,    5.7,    6.6,    8.3,    8.5,    8.3,    7.6,    6.6,    8.2,    6.6,    6.1,    5.2,    4.9,    4.5,    3.9,    4.0,    3.3,    3.2,    3.2,    2.6,    2.0,    2.3,    2.8,    3.1,    3.2,    1.7,    2.0,    0.6,   -0.0,   -0.2,   -0.6,   -0.7,   -0.4,   -0.5,   -1.0,   -0.9,   -0.8,   -1.1,   -1.5,   -1.3,   -1.6,   -1.9,   -1.8,   -0.2,   -0.1,    0.4,    0.3,    0.6,   -0.1,   -0.3,    0.9,   -1.3,   -1.3,   -2.1,   -0.7,    0.8,  999.0,  999.0,  999.0
2010/07/16 17:40,    5.2,    5.0,    4.6,    4.7,    4.6,    4.2,    4.4,    5.0,    5.7,    5.7,    5.9,    6.4,    6.4,    6.4,    7.0,    7.8,    7.6,    7.3,    6.5,    6.3,    5.3,    4.6,    4.8,    4.4,    4.7,    4.6,    5.0,    4.5,    4.3,    4.4,    3.9,    4.3,    5.0,    3.5,    4.2,    3.6,    3.2,    4.2,    5.2,    5.4,    6.4,    7.7,    6.6,    1.9,    3.2,    2.6,    2.4,    0.8,   -2.8,   -2.9,   -3.6,   -2.9,   -4.0,   -3.5,   -2.7,   -3.4,   -7.6,   -8.4,  -11.1,  -11.1,   -8.1,   -9.4,   -9.4,   -9.2,   -9.0,   -9.2,   -9.5,   -9.7,  -11.0,  -11.4,  -11.5,  -10.9,  -10.7,  -10.3,   -9.8,   -7.9,   -8.0,   -8.7,   -7.6,   -8.6,   -6.1,   -8.9,   -7.6,   -9.9,   -8.9,   -8.3,   -8.0,   -8.4,   -8.6,   -8.7,  -11.2,  -10.9,  -10.5,  -10.8,  -10.5,  -10.6,  -11.4,  -12.4
2010/07/16 17:50,    1.5,    1.5,    1.8,    2.6,    4.3,    4.0,    3.8,    3.9,    3.8,    4.0,    4.3,    4.1,    4.3,    4.0,    5.8,    7.3,    8.3,    7.8,    9.2,    8.4,    7.1,    5.8,    4.8,    4.1,    3.7,    3.0,    2.8,    2.5,    2.0,    2.2,    2.5,    3.4,    2.2,    3.0,    2.7,    3.1,    3.3,    3.1,    2.9,    2.8,    2.9,    1.7,    3.2,    3.0,    1.4,    0.2,   -0.7,   -1.8,   -1.6,   -1.7,   -1.7,   -1.6,   -2.5,   -1.7,   -2.0,   -2.6,   -2.3,   -2.7,   -3.1,   -2.2,   -0.7,   -0.8,   -2.2,   -4.5,   -5.8,   -6.1,   -3.8,   -3.3,   -2.9,   -3.3,   -3.9,   -3.7,   -5.4,   -5.2,   -5.0,   -5.5,   -3.0,   -2.5,   -4.2,   -4.3,   -6.7,   -6.7,   -7.3,   -7.5,   -7.9,   -8.0,   -8.1,   -6.3,   -6.2,   -4.1,   -3.3,   -2.5,   -4.4,   -6.2,   -3.9,   -1.8,   -2.5,   -3.1
2010/07/16 18:00,    0.2,    0.4,    0.5,    1.5,    2.7,    3.5,    4.4,    4.6,    5.1,    5.2,    5.4,    5.0,    4.4,    4.8,    6.1,    7.1,    8.4,    9.1,    8.9,    8.9,    7.7,    6.6,    5.7,    5.5,    4.4,    3.5,    5.2,    4.0,    4.3,    3.9,    3.5,    3.4,    3.7,    3.6,    2.9,    2.4,    2.0,    2.0,    1.6,    0.9,   -0.3,    0.6,    1.3,    2.1,    1.0,   -0.7,   -1.2,  999.0,    0.6,    0.7,    1.2,    0.2,   -0.4,    0.2,   -0.3,   -0.4,   -1.2,   -1.3,   -0.7,   -0.9,   -0.4,    0.3,    0.4,    0.1,    0.0,   -2.1,   -1.5,   -1.9,   -1.0,   -1.2,   -2.0,   -2.1,   -3.9,   -3.9,   -3.8,   -3.3,   -2.7,   -2.5,   -2.4,   -2.6,   -2.0,   -3.2,   -3.0,   -3.5,   -3.5,   -3.6,   -4.5,   -4.9,   -5.6,   -4.4,   -4.8,   -5.6,   -5.5,   -5.6,   -6.1,   -6.5,   -6.5,   -6.8
2010/07/16 18:10,   -0.1,    0.2,    0.4,    0.3,    1.3,    2.2,    2.8,    3.9,    4.5,    4.3,    4.6,    4.4,    4.5,    5.1,    6.4,    7.5,    8.2,    8.0,    6.6,    5.7,    5.1,    5.8,    5.0,    4.6,    4.3,    5.0,    5.0,    4.0,    6.0,    4.4,    6.5,    6.5,    7.2,    7.0,    4.7,    0.9,    0.3,    1.8,    1.9,    0.1,   -0.9,   -1.9,   -2.5,   -0.3,    1.2,   -0.7,    1.1,  999.0,    2.3,    1.1,    1.7,    1.6,    1.5,    0.9,    0.9,    1.8,    0.2,   -0.3,   -0.6,   -0.3,   -0.6,   -0.8,   -3.8,   -1.8,   -2.5,  999.0,  999.0,  999.0,  999.0,   -4.6,   -4.6,   -3.9,   -3.5,   -2.9,   -2.8,   -2.6,   -3.4,   -3.1,   -1.8,   -1.5,   -2.6,   -2.4,   -2.6,   -2.6,   -2.4,   -2.5,   -2.9,   -3.5,   -3.7,   -3.8,   -4.4,   -3.5,   -3.9,   -4.3,   -5.3,   -6.0,   -7.0,   -8.4
2010/07/16 18:20,   -2.2,   -2.2,   -3.1,   -1.2,   -0.1,    0.2,    0.8,    0.7,    4.3,    4.9,    0.5,    1.2,    2.1,    1.6,    1.9,    3.2,    4.4,    6.6,    6.7,    6.8,    5.8,    7.4,    7.4,    5.2,    5.4,    4.8,    4.6,    5.1,    1.4,    1.5,    1.5,    1.4,    6.5,    0.3,    4.5,    3.3,    3.8,    3.6,    4.2,    4.2,    2.4,    2.3,    2.9,    1.9,    1.5,    1.5,    3.1,    1.0,   -0.2,    0.7,    1.4,    1.1,    0.5,   -1.1,    0.2,   -0.3,  999.0,  999.0,  999.0,  999.0,  999.0,  999.0,  999.0,  999.0,  999.0,  999.0,   -9.6,   -8.7,   -8.8,  999.0,   -7.4,   -7.0,   -4.7,   -5.7,   -4.3,   -4.4,   -4.6,   -4.6,   -4.2,   -3.4,   -3.9,   -3.5,   -4.1,   -3.3,   -4.5,   -3.8,   -2.5,   -3.1,   -1.5,   -1.0,   -1.8,   -2.8,   -3.7,   -4.8,   -5.7,   -6.8,   -8.4,   -9.1
2010/07/16 18:30,  999.0,   -3.4,  999.0,   -3.3,  999.0,  999.0,  999.0,   -1.3,   -1.0,    1.5,    1.8,    2.2,    2.5,   -4.8,  -12.5,   -7.0,  -16.8,  -12.2,   -2.5,   -7.8,   -8.8,   -3.2,  -13.6,  999.0,  -11.5,    5.5,   -0.5,    7.4,    7.3,  999.0,   -3.5,    2.7,   -3.2,    3.0,    2.2,    8.1,    7.7,    9.3,    4.8,    8.5,    9.5,    9.4,    7.3,    5.0,    7.5,    7.6,    7.9,    4.8,    5.8,    5.6,    4.0,  999.0,  999.0,  999.0,    1.8,    2.3,    2.9,    2.5,    2.1,    2.3,    2.4,    2.8,    2.8,    2.2,    2.1,    3.0,    1.1,   -1.2,    2.6,    3.0,    1.4,   -2.2,  999.0,  999.0,  999.0,   -2.2,   -1.4,   -1.3,   -0.9,   -1.0,   -0.6,   -0.9,   -0.6,   -1.3,   -2.6,   -2.3,   -1.1,   -1.5,    0.5,   -0.7,   -1.7,   -3.2,   -3.7,   -4.5,   -5.1,   -5.6,   -6.2,   -6.9
2010/07/16 18:40,   -4.8,  999.0,   -5.6,   -3.6,   -3.6,   -2.8,   -2.3,    5.7,   -1.6,    1.0,  999.0,  999.0,  999.0,    0.1,  -27.4,  -19.1,  -18.6,  -22.1,  -26.1,  -25.9,  -25.8,  -25.5,  -25.8,  -25.2,  -25.2,  -14.0,   -5.5,  -18.8,   -6.1,  -12.4,  999.0,    3.6,  999.0,    5.8,    5.8,    3.7,    4.7,    5.1,    4.3,    4.5,    5.2,    5.3,    4.9,    4.1,    3.8,    4.9,    4.9,    1.6,   -1.7,   -1.8,   -1.3,   -2.1,   -1.3,   -2.7,   -3.2,   -2.4,   -1.9,   -1.8,   -1.0,   -1.2,   -1.3,   -0.6,   -0.5,   -0.3,   -0.3,   -0.0,   -0.5,   -1.0,   -3.9,   -3.9,   -2.0,  999.0,  999.0,  999.0,   -1.9,   -0.5,   -0.5,   -1.5,   -0.9,   -0.9,   -1.0,   -1.2,   -0.4,   -0.1,    0.4,    0.3,    0.2,    0.2,    0.2,   -1.4,   -1.9,   -3.6,   -5.1,   -6.9,   -7.8,   -8.9,   -8.9,   -9.3
2010/07/16 18:50,  999.0,   -3.2,  999.0,  999.0,   -2.4,   -1.7,   -0.3,    1.1,    1.1,    1.2,    3.9,    3.3,   -8.4,  -13.9,  -10.3,  -16.2,  -15.0,   -7.3,   -7.5,   -7.8,   -7.5,   -6.9,   -7.6,    2.5,    2.1,   -0.7,   -2.4,   -6.1,   -0.9,    2.2,    1.7,    1.9,   -3.9,   -2.1,   -0.1,    1.0,   -0.9,   -1.6,   -4.7,  999.0,    1.7,    1.6,    4.5,    1.9,   -1.8,    1.9,    1.7,    1.4,    2.4,    5.5,    1.7,    2.0,    1.0,    3.6,    0.5,    0.1,    0.4,   -0.5,   -1.5,   -1.8,   -1.7,   -0.9,   -0.7,   -0.2,    0.4,   -0.5,    0.2,   -0.8,   -2.0,   -0.2,   -2.1,    0.2,    0.2,    2.3,    1.7,   -0.2,    2.0,   -0.5,    2.0,    2.7,    3.3,    2.8,    2.3,    0.9,    0.1,   -1.2,   -0.9,   -0.8,   -1.5,   -2.2,   -2.9,   -3.9,   -4.8,   -5.6,   -6.3,   -6.7,   -7.1,   -7.4
2010/07/16 19:00,  999.0,  999.0,  999.0,  999.0,  999.0,   -8.0,   -7.5,   -0.4,   -0.9,  999.0,   -2.1,  999.0,    4.1,    0.8,   -6.9,   -4.5,   -5.0,    2.5,    2.1,    2.5,   -0.4,    0.1,    1.2,    0.9,   -2.3,   -0.8,   -0.6,    1.4,   -1.1,   -1.8,   -1.4,   -2.1,   -2.0,   -3.0,   -3.1,   -2.3,   -2.0,   -3.0,   -4.9,   -4.2,   -3.6,   -6.2,   -3.5,   -0.7,   -1.4,   -3.3,   -2.0,   -2.3,   -3.6,   -2.3,   -1.7,   -2.6,   -2.1,   -2.2,   -1.1,   -1.0,   -0.8,   -0.0,    0.3,    0.2,    0.2,    0.1,    0.2,    0.2,    0.3,    0.7,    0.8,    1.1,    1.0,    1.0,    1.0,    0.8,    1.0,    1.3,    1.3,    1.5,    1.8,    1.6,    1.6,    1.6,    1.8,    2.5,    1.7,    1.3,    0.1,   -0.4,   -1.3,   -1.5,   -2.9,   -4.0,   -4.4,   -4.6,   -4.6,   -5.2,   -5.6,   -6.4,   -6.9,   -7.3
2010/07/16 19:10,  999.0,    3.0,    2.4,    2.4,    0.7,    2.5,  999.0,  999.0,  999.0,    3.2,    3.9,    4.3,    5.3,    6.5,    7.3,    5.4,  999.0,    0.2,   -2.8,   -3.4,   -6.5,   -6.6,   -5.8,   -5.9,   -5.8,   -7.2,   -2.3,   -3.0,   -4.3,   -2.5,   -2.5,   -2.1,   -4.6,   -5.0,   -2.9,   -2.5,   -0.5,  999.0,  999.0,  999.0,  999.0,  999.0,  999.0,  999.0,  999.0,   -0.2,   -0.2,   -0.5,    0.3,   -0.6,   -0.3,   -0.2,   -0.1,   -0.1,   -0.3,    0.0,   -0.1,    0.2,   -0.0,   -1.3,   -1.9,   -2.0,   -1.7,   -1.4,   -1.0,   -0.8,   -0.5,    0.3,    0.8,    1.6,    1.3,    1.6,    2.1,    2.4,    2.0,    2.6,    2.7,    2.1,    1.7,    1.9,    0.8,    0.6,   -0.1,   -1.1,   -1.4,   -1.6,   -2.3,   -2.9,   -3.8,   -4.9,   -5.9,   -6.7,   -7.6,   -8.1,   -8.9,   -9.3,   -9.5,   -9.8
2010/07/16 19:20,  999.0,  999.0,  999.0,   -0.8,   -1.9,   -2.0,   -0.8,  999.0,   -1.0,    0.5,    1.5,    3.4,    4.2,    4.8,    5.2,    3.8,    5.7,    5.1,    4.3,    3.5,    2.8,    2.3,    2.6,    3.1,    2.7,    2.2,    2.2,    2.2,    2.1,    2.2,    2.3,    1.7,    1.0,    0.5,    0.1,   -0.6,   -1.0,   -1.4,   -1.7,   -2.4,   -2.2,   -1.7,   -1.9,   -2.5,   -2.3,   -1.9,   -1.6,   -1.6,   -0.9,   -0.1,    1.0,    1.3,    1.1,    0.8,    0.5,    0.1,   -0.2,   -0.3,   -0.1,    0.1,    0.0,    0.1,    0.3,    0.4,    0.5,    0.8,    0.9,    0.8,    0.7,    1.1,    1.3,    0.8,    1.0,    1.5,    2.4,    2.9,    2.8,    3.3,    3.5,    2.6,    2.6,    1.0,    0.7,   -2.7,   -4.6,   -5.7,   -6.3,   -6.2,   -7.0,   -7.6,   -8.0,   -8.3,   -8.3,   -9.3,   -8.8,   -9.3,   -9.3,   -9.6
2010/07/16 19:30,  999.0,   -4.8,   -3.3,   -1.9,  999.0,  999.0,   -4.0,    0.3,  999.0,    1.6,    3.1,    4.1,    5.1,    5.3,    5.4,    5.4,    4.3,    3.9,    3.1,    2.9,    2.2,    2.1,    2.6,    2.2,    1.4,    1.5,    1.7,    1.7,    1.8,    2.0,    2.3,    1.8,    1.4,    1.0,    0.5,   -0.1,   -0.4,   -0.8,   -0.5,   -0.0,   -0.2,    0.3,   -0.3,   -0.2,   -0.7,   -0.9,   -0.2,   -0.3,   -0.1,    0.3,    1.2,    1.9,    2.5,    2.8,    2.8,    2.9,    2.2,    1.3,    2.0,    2.2,    2.5,    3.2,    3.1,    3.4,    3.5,    3.6,    4.0,    4.5,    4.4,    4.2,    4.2,    3.7,    3.9,    4.2,    3.6,    4.0,    3.4,    3.0,    3.3,    3.2,    2.1,    0.1,   -0.3,   -2.2,   -3.2,   -4.4,   -5.4,   -6.6,   -7.4,   -8.0,   -8.8,   -8.7,   -8.3,   -8.3,   -8.0,   -7.6,   -6.9,   -6.7
2010/07/16 19:40,   -3.2,   -2.9,   -1.8,   -1.9,   -1.5,   -0.3,   -0.4,    0.8,    2.1,    3.1,    4.4,    4.7,    5.1,    5.8,    4.3,    4.5,    2.3,    1.2,    0.8,    1.8,    1.3,    1.3,    1.9,    1.3,    1.7,    1.3,    1.5,    2.0,    2.6,    3.1,    3.5,    3.1,    2.4,    2.3,    1.8,    1.4,    1.4,    0.8,    0.3,   -0.3,   -0.6,   -0.9,   -1.2,   -1.6,   -1.3,   -0.8,   -0.5,   -0.1,    0.4,    0.3,    0.6,    0.7,    1.1,    1.4,    2.3,    2.7,    3.5,    3.5,    2.8,    2.2,    1.9,    1.8,    1.6,    2.0,    2.7,    3.7,    4.1,    4.8,    5.5,    6.2,    7.1,    6.7,    6.7,    4.7,    4.2,    3.2,    2.3,    1.0,    0.2,   -1.4,   -2.2,   -3.1,   -3.4,   -3.5,   -3.7,   -4.2,   -5.1,   -5.8,   -6.3,   -6.2,   -6.1,   -5.9,   -5.7,   -5.1,   -5.0,   -4.6,   -4.2,   -3.8
2010/07/16 19:50,   -5.1,   -5.1,   -4.0,   -2.5,   -1.7,   -1.2,    0.2,    1.9,    2.6,    2.6,    2.9,    3.5,    3.7,    4.6,    4.0,    2.1,    0.9,   -0.0,   -0.7,   -0.2,    0.1,    0.2,   -0.5,   -0.5,   -0.1,   -0.0,    0.1,    0.7,    1.5,    1.8,    1.6,    1.2,    0.8,    0.9,    0.5,    0.1,   -0.4,   -0.5,   -0.7,   -1.5,   -2.9,   -1.1,   -2.3,   -1.4,   -0.5,   -0.2,    0.3,    0.5,    1.2,    1.0,    0.9,    2.1,    2.1,    2.3,    2.4,    2.4,    2.5,    2.8,    3.4,    2.7,    2.9,    2.8,    2.3,    1.7,    1.1,    0.1,   -0.5,   -0.8,   -0.9,   -2.4,   -2.0,   -1.4,   -1.7,   -0.7,   -1.3,   -1.7,   -2.1,   -2.0,   -2.6,   -1.8,   -1.6,   -1.9,   -2.3,   -3.1,   -3.8,   -4.5,   -5.4,   -6.3,   -7.1,   -7.2,   -7.4,   -7.3,   -7.1,   -6.7,   -6.3,   -5.5,   -4.8,   -4.3
2010/07/16 20:00,   -4.8,   -4.7,   -4.7,  999.0,   -0.6,   -1.0,    0.1,    0.3,   -0.4,    1.0,    0.8,    2.0,    3.2,    4.3,    4.2,    3.4,    2.4,    2.7,    2.0,    2.2,    2.4,    3.0,    0.6,    0.7,   -0.5,    0.0,    0.3,    0.0,   -1.3,   -0.9,    0.4,   -0.9,    1.9,    1.2,   -0.2,    0.1,   -0.4,   -1.4,   -0.8,   -0.7,    3.5,  999.0,  999.0,    5.2,    2.3,  999.0,    2.8,    2.6,    2.9,    3.0,    3.2,    3.6,    3.8,    3.8,    3.1,    2.4,    2.4,    1.0,   -0.0,   -2.0,   -3.1,   -4.5,   -6.2,   -6.8,   -5.8,   -5.5,   -5.5,   -5.3,   -5.1,   -4.9,   -4.9,   -5.0,   -4.8,   -4.7,   -4.0,   -3.8,   -3.8,   -3.6,   -2.8,   -2.5,   -2.3,   -2.5,   -2.5,   -2.5,   -2.8,   -2.7,   -3.1,   -3.5,   -3.5,   -3.5,   -3.8,   -3.7,   -3.4,   -3.0,   -2.8,   -2.5,   -2.2,   -1.9
2010/07/16 20:10,   -5.1,   -4.8,   -4.8,   -4.5,   -3.1,   -2.2,   -0.4,    0.2,    0.7,    1.4,    1.4,    1.6,    1.7,    3.3,    4.3,    2.9,    1.2,    0.4,    1.1,    1.0,    1.4,    1.5,    1.4,    2.1,    2.3,    3.4,    4.0,    4.3,    4.5,    4.3,    3.0,  999.0,    2.2,    1.6,    0.8,    0.5,    0.2,    0.6,    0.7,    1.1,  999.0,  999.0,  999.0,    4.0,    4.7,  999.0,    5.9,    5.8,    6.3,    6.6,    6.8,    6.4,    4.0,    1.8,    0.3,   -0.7,   -1.9,   -2.6,   -2.9,   -3.2,   -3.6,   -4.2,   -4.4,   -4.9,   -5.4,   -5.7,   -6.0,   -6.3,   -6.4,   -6.3,   -5.9,   -5.2,   -4.5,   -3.7,   -3.1,   -2.9,   -2.7,   -2.6,   -2.3,   -2.2,   -2.3,   -2.4,   -2.5,   -2.4,   -2.6,   -2.6,   -2.5,   -2.2,   -2.0,   -1.7,   -1.5,   -1.2,   -1.0,   -0.7,   -0.4,   -0.2,   -0.0,    0.4
2010/07/16 20:20,  999.0,   -4.6,   -4.0,   -3.7,   -3.0,   -2.4,   -0.8,   -0.3,    1.2,    2.1,    1.1,    1.9,    2.0,    2.8,  999.0,  999.0,  999.0,  999.0,  999.0,  999.0,  999.0,  999.0,  999.0,  999.0,  999.0,  999.0,  999.0,  999.0,  999.0,  999.0,  999.0,  999.0,  999.0,  999.0,  999.0,  999.0,  999.0,  999.0,  999.0,  999.0,  999.0,  999.0,  999.0,  999.0,  999.0,    4.9,    4.8,    5.1,    4.7,    3.1,    1.2,   -0.7,   -1.3,   -1.7,   -2.4,   -3.6,   -4.1,   -5.0,   -5.9,   -6.5,   -6.8,   -6.6,   -6.9,   -6.6,   -6.5,   -6.2,   -5.9,   -5.6,   -5.4,   -5.5,   -5.2,   -4.7,   -4.1,   -3.4,   -2.6,   -1.9,   -1.5,   -1.0,   -0.7,   -0.7,   -0.5,   -0.2,   -0.2,   -0.1,   -0.0,    0.1,    0.2,    0.2,   -0.1,   -0.4,   -0.2,   -0.4,   -0.4,   -0.3,   -0.4,   -0.3,   -0.2,   -0.3
2010/07/16 20:30,  999.0,  999.0,  999.0,   -3.2,   -2.7,   -2.3,   -1.6,    0.1,    0.7,    0.7,    0.9,    2.3,    3.6,  999.0,    2.3,    2.1,    1.6,    1.7,    1.7,    1.3,    2.1,  999.0,  999.0,    1.9,  999.0,  999.0,  999.0,  999.0,  999.0,  999.0,  999.0,  999.0,  999.0,  999.0,  999.0,  999.0,  999.0,  999.0,  999.0,  999.0,  999.0,  999.0,  999.0,  999.0,  999.0,    5.0,    4.0,    3.0,    1.3,    0.9,    0.7,    0.2,   -0.6,   -1.9,   -2.6,   -2.8,   -3.1,   -3.0,   -3.3,   -3.7,   -3.7,   -3.6,   -3.6,   -3.7,   -3.5,   -3.6,   -3.2,   -3.3,   -3.2,   -3.2,   -3.4,   -3.5,   -3.7,   -3.8,   -3.6,   -3.7,   -3.7,   -3.3,   -3.0,   -2.5,   -2.0,   -1.9,   -1.5,   -1.1,   -0.9,   -0.9,   -0.9,   -1.3,   -1.9,   -2.2,   -2.1,   -2.0,   -2.0,   -2.0,   -1.9,   -1.7,   -1.7,   -1.6
2010/07/16 20:40,   -4.5,   -3.4,   -3.2,   -2.4,   -2.6,   -2.3,   -0.7,   -0.1,    0.1,   -0.6,    0.3,    1.6,  999.0,  999.0,  999.0,    1.7,  999.0,  999.0,    1.0,    1.4,  999.0,  999.0,  999.0,  999.0,  999.0,  999.0,  999.0,  999.0,  999.0,  999.0,  999.0,  999.0,  999.0,  999.0,  999.0,  999.0,  999.0,  999.0,  999.0,  999.0,  999.0,  999.0,  999.0,  999.0,    5.4,    5.2,    4.9,    4.3,    3.3,    2.4,    1.8,    0.7,   -0.7,   -1.6,   -1.8,   -1.6,   -2.1,   -2.5,   -3.2,   -3.6,   -4.2,   -4.5,   -4.6,   -4.5,   -4.2,   -4.1,   -3.9,   -3.9,   -4.0,   -3.9,   -4.0,   -4.3,   -4.4,   -4.4,   -4.4,   -4.6,   -4.7,   -5.0,   -5.2,   -5.2,   -5.1,   -4.9,   -4.8,   -4.4,   -4.1,   -3.7,   -3.2,   -2.9,   -2.6,   -2.4,   -2.3,   -2.3,   -2.0,   -1.2,   -0.7,   -0.1,    0.1,    0.2
2010/07/16 20:50,  999.0,  999.0,  999.0,  999.0,   -2.3,   -2.1,   -0.1,  999.0,  999.0,  999.0,  999.0,  999.0,  999.0,  999.0,  999.0,  999.0,  999.0,  999.0,  999.0,  999.0,  999.0,  999.0,  999.0,  999.0,  999.0,  999.0,  999.0,  999.0,  999.0,  999.0,  999.0,  999.0,  999.0,  999.0,  999.0,  999.0,  999.0,  999.0,  999.0,  999.0,  999.0,  999.0,  999.0,    2.6,    2.2,    1.8,    1.5,    0.5,   -0.4,   -1.1,   -2.1,   -2.9,   -3.4,   -4.0,   -4.1,   -4.1,   -4.0,   -3.7,   -3.4,   -3.3,   -3.3,   -3.5,   -3.5,   -3.2,   -3.1,   -3.0,   -2.9,   -2.8,   -2.7,   -2.8,   -3.0,   -3.2,   -3.1,   -3.2,   -3.2,   -3.3,   -3.6,   -3.7,   -3.8,   -3.9,   -4.0,   -3.9,   -3.9,   -3.7,   -3.5,   -3.3,   -3.0,   -2.8,   -2.5,   -2.3,   -2.2,   -2.1,   -2.0,   -2.0,   -1.7,   -1.6,   -1.5,   -1.5
2010/07/16 21:00,   -2.7,   -2.5,   -3.0,   -2.7,   -2.6,   -1.7,   -0.0,    0.5,    1.1,   -6.8,  999.0,   -7.1,  999.0,  999.0,  999.0,  999.0,  999.0,  999.0,  999.0,  999.0,  999.0,    0.5,  999.0,  999.0,  999.0,  999.0,  999.0,  999.0,  999.0,  999.0,  999.0,  999.0,  999.0,  999.0,  999.0,  999.0,  999.0,  999.0,  999.0,  999.0,  999.0,  999.0,  999.0,  999.0,   -1.5,  999.0,   -1.8,   -2.8,   -2.7,   -3.1,   -3.3,   -3.3,   -3.2,   -3.0,   -3.4,   -3.3,   -3.3,   -3.3,   -3.2,   -3.2,   -3.0,   -2.9,   -2.6,   -2.4,   -2.1,   -1.9,   -1.5,   -1.3,   -1.1,   -1.2,   -1.1,   -0.9,   -0.6,   -0.3,   -0.2,   -0.1,   -0.4,   -0.6,   -0.9,   -1.0,   -1.3,   -1.5,   -1.4,   -1.3,   -1.0,   -0.6,   -0.1,   -0.3,   -0.1,   -0.2,   -0.3,   -0.9,   -1.3,   -1.4,   -1.6,   -1.6,   -1.7,   -1.9
2010/07/16 21:10,   -3.2,   -2.4,   -2.7,   -2.5,   -2.3,   -0.5,    0.1,    1.9,   -1.2,    2.0,    1.9,    1.6,    1.7,   -4.0,    1.1,    1.7,  999.0,  999.0,  999.0,  999.0,  999.0,  999.0,  999.0,  999.0,  999.0,  999.0,  999.0,  999.0,  999.0,  999.0,  999.0,  999.0,  999.0,  999.0,  999.0,  999.0,  999.0,  999.0,  999.0,  999.0,  999.0,  999.0,  999.0,   -3.8,   -2.5,   -3.2,   -3.8,   -3.8,   -3.6,   -3.2,   -2.8,   -2.8,   -2.7,   -2.5,   -2.3,   -2.6,   -2.9,   -3.2,   -3.1,   -3.7,   -3.7,   -3.7,   -3.6,   -3.7,   -3.6,   -2.6,   -2.2,   -1.7,   -1.5,   -1.8,   -1.6,   -1.1,   -1.0,   -0.9,   -0.6,   -0.4,   -0.5,   -0.3,   -0.4,   -0.3,   -0.3,   -0.1,    0.1,    0.3,    0.4,    0.3,    0.0,   -0.2,   -0.6,   -0.9,   -1.3,   -1.8,   -1.7,   -1.9,   -1.7,   -1.5,   -1.4,   -1.3
2010/07/16 21:20,   -2.4,   -2.6,  999.0,  999.0,   -0.1,    0.1,  999.0,  999.0,   -6.8,   -7.0,  999.0,  999.0,  999.0,  999.0,  999.0,  999.0,  999.0,  999.0,  999.0,  999.0,  999.0,  999.0,  999.0,  999.0,  999.0,  999.0,  999.0,  999.0,  999.0,  999.0,  999.0,  999.0,  999.0,  999.0,  999.0,  999.0,  999.0,  999.0,  999.0,  999.0,  999.0,  999.0,  999.0,   -2.6,  999.0,  999.0,  999.0,  999.0,   -5.2,   -5.5,   -5.4,   -5.2,   -4.9,   -4.9,   -4.7,   -4.8,   -4.6,   -4.7,   -5.2,   -5.4,   -6.0,   -6.3,   -6.7,   -6.8,   -6.2,   -5.8,  999.0,   -4.8,  999.0,  999.0,  999.0,   -2.2,   -1.5,   -0.8,   -0.1,    0.0,    0.4,    0.5,    0.4,    0.4,    0.2,    0.2,    0.0,   -0.1,   -0.2,   -0.4,   -0.7,   -0.9,   -1.0,   -1.1,  999.0,  999.0,  999.0,  999.0,  999.0,  999.0,  999.0,  999.0
2010/07/16 21:30,   -2.1,   -1.7,   -1.8,   -2.0,    0.2,    0.9,    2.3,   -1.9,   -1.8,   -2.3,    1.5,    1.1,    1.4,  999.0,  999.0,  999.0,  999.0,  999.0,  999.0,  999.0,  999.0,  999.0,  999.0,  999.0,  999.0,  999.0,  999.0,  999.0,  999.0,  999.0,  999.0,  999.0,  999.0,  999.0,  999.0,  999.0,   -0.4,   -0.7,  999.0,  999.0,  999.0,  999.0,  999.0,  999.0,   -1.1,   -3.0,   -3.8,   -4.4,   -4.9,   -5.1,   -5.2,   -5.2,   -4.9,   -4.6,   -4.4,   -4.5,   -4.3,   -4.5,   -4.8,   -5.0,   -5.1,   -5.0,   -5.3,   -5.5,   -5.9,   -5.9,   -6.0,   -5.9,   -5.9,   -5.9,   -5.6,   -4.6,   -3.9,   -2.6,   -2.4,   -1.4,   -1.2,   -1.4,   -1.3,   -1.3,   -1.5,   -1.7,   -1.8,   -2.0,   -2.1,   -2.3,   -2.3,   -2.2,   -2.1,   -2.3,   -2.1,   -2.4,   -2.3,   -2.3,   -2.3,   -2.6,   -3.1,   -3.5
2010/07/16 21:40,   -1.3,   -1.4,   -2.1,   -1.6,    0.8,    1.9,   -2.9,   -3.9,   -3.9,    1.7,   -5.5,   -5.5,   -2.3,    1.5,   -4.8,    0.5,    0.8,    1.0,    0.4,  999.0,  999.0,  999.0,  999.0,  999.0,  999.0,  999.0,  999.0,  999.0,  999.0,  999.0,  999.0,  999.0,  999.0,  999.0,  999.0,  999.0,  999.0,  999.0,  999.0,  999.0,  999.0,  999.0,  999.0,  999.0,  999.0,   -3.8,   -6.1,  999.0,   -7.5,   -7.4,   -7.9,   -7.3,   -7.0,   -6.4,   -5.7,   -5.2,   -5.0,   -5.3,   -5.4,   -5.6,   -6.0,   -6.0,   -6.3,   -6.0,   -5.7,   -5.5,   -4.7,   -4.0,   -3.2,   -2.7,   -2.2,   -1.4,   -1.6,   -1.3,   -1.3,   -1.2,   -1.5,   -1.2,   -1.2,   -1.3,   -1.7,   -1.9,   -2.1,   -2.3,   -2.6,   -2.5,   -2.3,   -1.6,   -1.6,   -1.5,   -1.6,   -1.4,   -1.3,   -1.1,   -1.0,   -1.0,   -0.8,   -1.0
2010/07/16 21:50,   -1.3,   -2.1,   -2.1,   -1.2,    1.1,    2.5,    2.5,    2.1,    2.2,    2.1,    1.8,    1.8,    2.2,    1.9,  999.0,  999.0,  999.0,  999.0,  999.0,  999.0,  999.0,  999.0,  999.0,  999.0,  999.0,  999.0,  999.0,  999.0,  999.0,  999.0,  999.0,  999.0,  999.0,  999.0,  999.0,  999.0,  999.0,  999.0,  999.0,  999.0,  999.0,  999.0,  999.0,   -2.5,  999.0,   -6.6,   -6.5,   -5.6,   -5.3,   -5.5,   -5.5,   -5.4,   -5.1,   -4.9,   -5.0,   -5.1,   -5.0,   -4.6,   -4.3,   -3.9,   -3.9,   -3.6,   -3.5,   -3.0,   -2.1,   -1.3,   -0.3,    0.5,    0.9,    0.8,    0.7,    0.6,    0.4,    0.4,    0.4,    0.2,   -0.0,   -0.2,   -0.5,   -0.8,   -0.9,   -0.9,   -0.7,   -0.4,   -0.1,    0.4,    0.3,    0.4,    0.5,    0.5,    0.6,    0.6,    0.4,    0.5,    0.2,   -0.0,   -0.4,   -0.2
2010/07/16 22:00,   -1.1,   -1.6,   -1.5,  999.0,  999.0,  999.0,  999.0,    2.1,  999.0,   -6.7,  999.0,  999.0,    1.4,    0.2,    0.7,  999.0,  999.0,  999.0,  999.0,  999.0,  999.0,  999.0,  999.0,  999.0,  999.0,  999.0,  999.0,  999.0,   -2.0,   -1.8,   -0.9,  999.0,  999.0,  999.0,  999.0,  999.0,  999.0,  999.0,  999.0,  999.0,  999.0,  999.0,   -3.6,   -3.6,   -4.6,   -4.2,   -4.2,   -3.9,   -3.9,   -3.8,   -3.7,   -3.8,   -3.6,   -3.3,   -3.2,   -3.2,   -3.3,   -3.4,   -3.2,   -3.0,   -2.9,   -2.6,   -2.3,   -1.4,   -0.3,    1.1,    2.0,    2.4,    2.3,    2.0,    1.8,    1.6,    1.0,    0.8,    0.4,    0.1,   -0.1,   -0.1,    0.1,    0.5,    0.6,    0.7,    0.8,    1.0,    1.0,    0.8,    0.6,    0.5,    0.5,    0.4,    0.3,    0.3,   -0.0,   -0.2,   -0.4,   -0.4,   -0.3,   -0.5
2010/07/16 22:10,   -1.5,   -2.3,   -2.1,   -0.2,    2.4,    2.2,    2.3,    2.0,    2.4,    2.4,    2.1,    1.7,    1.3,    1.6,    2.1,    2.0,    2.3,    2.3,    2.7,    2.1,    2.3,    1.7,    1.5,    1.3,    1.1,    0.8,    0.1,   -0.4,   -0.8,    0.1,    0.5,    1.2,    0.7,    1.0,    0.7,   -0.4,  999.0,  999.0,  999.0,  999.0,  999.0,  999.0,   -3.6,   -4.8,   -4.5,   -4.1,   -3.3,   -2.1,   -1.7,   -1.7,   -2.0,   -2.4,   -2.9,   -3.3,   -3.8,   -3.6,   -3.2,   -2.8,   -2.4,   -2.3,   -2.2,   -1.8,   -1.0,   -0.2,    0.8,    1.8,    2.5,    2.8,    2.8,    2.4,    2.1,    2.1,    2.1,    1.8,    1.6,    1.5,    1.4,    1.4,    1.2,    1.2,    1.2,    0.9,    0.7,    0.6,    0.6,    0.7,    0.7,    0.8,    0.9,    0.9,    1.0,    1.1,    0.8,    0.6,    0.2,   -0.5,   -0.6,   -1.0
2010/07/16 22:20,   -1.4,   -2.1,   -2.1,   -0.9,    1.7,    2.5,    1.7,    1.8,    1.6,    2.6,    2.4,    2.2,    2.0,    1.4,    1.9,    2.1,    2.1,    3.2,    3.2,    2.8,    2.4,    1.8,    1.2,    0.5,    0.2,    0.7,    0.1,   -0.4,   -0.5,   -0.1,    1.0,    1.2,    1.5,    0.9,    0.5,   -4.3,  999.0,  999.0,  999.0,  999.0,  999.0,  999.0,   -3.2,   -3.6,  999.0,  999.0,   -4.3,   -4.8,   -5.2,   -5.5,   -5.4,   -4.9,   -4.6,   -4.1,   -3.4,   -2.9,   -2.5,   -1.8,   -1.1,   -0.4,    0.6,    1.2,    1.6,    1.8,    1.8,    1.8,    1.8,    1.8,    1.6,    1.5,    1.4,    1.4,    1.5,    1.8,    1.8,    1.8,    2.0,    1.9,    2.1,    2.3,    2.4,    2.5,    2.5,    2.7,    2.7,    3.3,    3.3,    3.7,    3.5,    3.1,    2.7,    2.1,    2.0,    2.2,    1.5,    1.3,    1.2,    0.8
2010/07/16 22:30,   -1.6,   -2.2,   -1.6,    0.2,    1.9,    1.5,    1.0,    1.1,    1.7,    1.8,   -6.6,   -7.2,    1.8,    1.2,   -6.8,    2.5,   -6.1,    1.4,    1.2,    0.9,    1.1,  -16.1,  999.0,    0.0,   -1.2,   -1.5,  999.0,  999.0,  999.0,  999.0,  999.0,  999.0,  999.0,  999.0,  999.0,  999.0,  999.0,  999.0,  999.0,  999.0,  999.0,   -1.8,   -3.0,   -3.0,   -3.8,   -5.1,   -6.1,   -7.0,   -6.9,   -6.7,   -5.8,   -4.5,   -3.6,   -2.9,   -2.2,   -1.6,   -1.3,   -0.9,   -0.0,    0.8,    1.4,    1.9,    1.6,    1.2,    1.0,    1.3,    1.7,    1.8,    1.8,    1.9,    2.2,    2.5,    2.8,    2.8,    2.6,    2.5,    2.3,    2.3,    2.3,    2.3,    2.3,    2.1,    1.8,    1.5,    1.2,    0.9,    0.6,    0.4,    0.1,   -0.1,   -0.4,   -0.4,   -0.1,    0.1,    0.7,   -0.4,   -0.3,   -0.4
2010/07/16 22:40,   -1.1,   -1.8,   -0.7,    1.0,    1.9,    1.3,    1.0,    1.1,  999.0,  999.0,  999.0,  999.0,  999.0,  999.0,  999.0,  999.0,  999.0,  999.0,  999.0,  999.0,  999.0,  999.0,  999.0,  999.0,  999.0,  999.0,  999.0,  999.0,  999.0,  999.0,  999.0,  999.0,  999.0,  999.0,  999.0,  999.0,  999.0,  999.0,  999.0,  999.0,  999.0,  999.0,  999.0,  999.0,  999.0,   -6.4,   -6.2,   -6.6,   -6.2,   -4.8,   -3.3,   -2.1,   -1.4,   -1.0,   -0.5,   -0.2,   -0.2,    0.3,    1.3,    1.9,    2.0,    1.5,    0.9,    0.4,    0.1,   -0.1,   -0.2,   -0.2,    0.0,    0.3,    0.4,    0.7,    1.0,    1.5,    2.1,    2.5,    2.7,    2.6,    2.4,    2.0,    1.5,    1.3,    0.8,    0.7,    0.4,    0.2,    0.2,    0.2,    0.2,   -0.0,   -0.2,   -0.5,   -0.8,   -1.2,   -1.1,   -1.5,   -1.4,   -2.0
2010/07/16 22:50,   -1.5,   -1.4,   -0.0,    1.6,    2.1,    1.1,    0.7,    1.3,   -1.8,    2.1,    1.8,    2.1,    1.8,    2.0,  999.0,  999.0,  999.0,  999.0,  999.0,  999.0,    1.1,    1.1,    0.6,    0.4,    0.1,   -0.1,    0.0,    0.4,    1.5,    2.1,  999.0,    2.4,  999.0,    1.2,    0.7,    0.4,   -0.4,   -0.4,  999.0,  999.0,  999.0,  999.0,   -4.7,  999.0,  999.0,   -5.2,   -4.9,   -4.5,   -3.8,   -3.0,   -2.4,   -1.9,   -1.2,   -0.4,   -0.1,    0.2,    0.3,    0.6,    0.9,    0.8,    0.8,    0.5,    0.2,   -0.1,   -0.3,   -0.3,   -0.3,   -0.2,    0.3,    0.8,    1.1,    1.6,    2.2,    2.5,    3.0,    3.0,    2.8,    2.5,    2.2,    2.2,    2.1,    1.7,    1.3,    1.0,    0.5,    0.3,    0.3,    0.3,    0.3,    0.3,    0.3,    0.3,    0.3,    0.4,    0.4,    0.4,    0.2,    0.1
2010/07/16 23:00,   -2.1,   -1.5,    0.2,    1.5,    1.8,    1.0,    0.9,    1.6,    2.1,    2.4,    2.3,    2.5,    2.9,    2.9,    3.0,    2.3,    2.7,    2.5,    2.1,    1.8,    1.0,    1.1,   -0.0,    0.5,   -0.2,   -0.5,    0.2,    0.7,    1.5,    2.0,    1.6,    1.9,    0.9,    0.6,   -0.0,   -1.0,  999.0,  999.0,  999.0,  999.0,  999.0,  999.0,  999.0,  999.0,   -5.1,  999.0,   -5.5,   -5.2,   -4.0,   -3.5,   -2.8,   -2.2,   -1.6,   -1.0,   -0.4,    0.2,    0.6,    0.8,    0.8,    0.9,    0.7,    0.7,    0.9,    0.9,    0.9,    1.1,    1.4,    1.2,    1.3,    1.5,    1.7,    1.8,    1.9,    2.0,    2.1,    2.3,    2.5,    2.3,    2.2,    2.1,    1.8,    1.4,    1.1,    0.9,    0.8,    0.9,    1.1,    1.1,    1.0,    1.0,    1.0,    0.9,    0.9,    0.9,    0.9,    0.6,    0.5,    0.2
2010/07/16 23:10,   -1.3,   -0.8,    0.9,    2.2,    2.6,    1.8,    1.8,    2.3,    2.6,    2.6,    2.9,    3.5,    3.4,    2.6,    2.1,    2.2,    1.3,    0.6,   -0.1,   -0.7,    0.1,    0.0,    0.3,    1.2,   -0.5,   -0.2,    0.9,    1.2,    1.1,    0.9,    0.7,    0.6,    0.0,  999.0,  999.0,  999.0,  999.0,  999.0,  999.0,  999.0,  999.0,  999.0,  999.0,  999.0,   -4.2,   -5.2,   -5.1,   -4.9,   -4.3,   -3.9,   -3.4,   -2.3,   -1.3,   -0.7,   -0.4,   -0.1,    0.2,    0.7,    0.8,    1.0,    1.0,    1.1,    1.1,    1.2,    1.3,    1.4,    1.7,    1.9,    2.1,    2.4,    2.6,    2.5,    2.8,    2.9,    3.0,    3.1,    3.1,    2.9,    2.6,    2.3,    1.9,    1.4,    1.0,    0.8,    0.5,    0.4,    0.6,    0.7,    0.4,    0.5,    0.4,    0.5,    0.4,    0.1,   -0.1,   -0.4,   -0.6,   -0.9
2010/07/16 23:20,   -1.5,   -1.9,   -0.5,    1.1,    1.8,    1.4,    1.3,    1.9,    2.3,    2.7,    3.3,    3.8,    3.2,    3.1,    3.3,    2.5,    2.1,    1.6,    1.0,    0.5,    0.9,    1.0,    0.7,    0.6,    1.3,    1.6,    2.2,    2.1,    2.5,    1.8,    0.9,    0.1,   -1.0,   -1.9,  999.0,  999.0,  999.0,  999.0,  999.0,  999.0,  999.0,  999.0,  999.0,  999.0,  999.0,   -2.3,   -3.4,   -2.7,   -2.1,   -1.5,   -1.0,   -0.6,   -0.4,   -0.3,   -0.1,   -0.2,   -0.2,   -0.1,    0.2,    0.5,    0.6,    0.8,    0.8,    0.9,    1.4,    1.7,    1.8,    1.8,    1.9,    2.0,    2.1,    2.0,    2.0,    2.1,    2.0,    1.7,    1.1,    0.4,   -0.6,   -0.6,   -0.8,   -0.8,   -0.8,   -0.5,   -0.4,   -0.3,   -0.2,   -0.2,    0.1,    0.1,   -0.2,   -0.3,   -0.6,   -0.9,   -1.1,   -1.2,   -1.1,   -1.1
2010/07/16 23:30,   -2.0,   -1.6,   -0.4,    0.5,    0.5,    1.0,    1.1,    1.7,    2.0,    2.4,    3.1,    3.1,    2.8,    3.3,    2.7,    2.1,    1.4,    0.8,    0.9,    1.6,    0.6,    0.6,    0.5,    1.4,    1.3,    1.3,    1.9,    1.9,    1.0,    0.4,   -0.4,   -0.7,   -1.2,   -1.8,   -1.1,   -0.8,   -1.3,  999.0,  999.0,  999.0,  999.0,  999.0,   -1.6,  999.0,  999.0,  999.0,   -1.8,   -2.1,   -1.9,   -1.8,   -1.5,   -1.4,   -1.9,   -1.8,   -1.5,   -1.1,   -0.6,    0.1,    0.5,    0.6,    0.8,    1.0,    1.0,    1.0,    1.5,    1.8,    1.9,    2.0,    2.0,    1.9,    1.9,    1.8,    1.6,    1.1,    0.5,    0.1,   -0.3,   -0.7,   -0.6,   -0.5,   -0.3,   -0.1,   -0.1,    0.1,    0.2,    0.0,   -0.1,   -0.1,   -0.6,   -0.3,   -0.6,   -1.1,  999.0,  999.0,   -1.1,  999.0,  999.0,  999.0
2010/07/16 23:40,   -3.0,   -1.3,   -0.8,   -0.9,   -0.1,   -0.4,    0.1,    1.0,    2.1,    3.0,    3.3,   -0.3,    3.5,    2.8,    2.2,    1.5,    1.5,    1.2,    1.6,    2.2,    1.7,    2.2,    2.0,    2.3,    2.4,    2.6,    2.6,    2.2,    1.2,   -0.4,   -1.2,   -0.7,   -0.4,   -0.1,   -0.9,   -1.0,  999.0,  999.0,  999.0,  999.0,  999.0,  999.0,   -2.5,  999.0,   -2.3,   -2.2,   -2.0,   -2.3,   -2.6,   -2.5,   -2.4,   -2.1,   -1.7,   -1.0,   -0.2,    0.4,    0.7,    0.8,    1.0,    0.8,    0.7,    0.6,    0.6,    0.7,    0.9,    1.1,    1.0,    0.8,    0.4,    0.5,    0.2,   -0.1,   -0.1,   -0.2,   -0.2,   -0.2,   -0.1,   -0.0,    0.0,   -0.2,   -0.3,   -0.2,   -0.5,   -0.2,   -0.3,   -0.6,   -0.7,   -0.9,   -1.1,   -1.6,   -1.6,   -1.4,   -1.5,   -1.2,  999.0,  999.0,  999.0,  999.0
2010/07/16 23:50,   -1.7,   -0.9,   -0.9,   -0.2,    0.5,    1.0,    1.4,    2.2,    3.0,    3.0,    3.3,    3.5,    2.7,    2.0,    1.7,    1.1,    1.4,    2.2,    2.4,    2.8,    2.5,    2.7,    1.8,    2.4,    3.8,    5.7,    6.6,    6.0,    4.5,    3.3,    3.3,    2.5,    2.0,    2.1,    3.4,    2.5,   -0.7,   -1.7,   -2.2,   -2.7,   -3.5,   -4.0,   -5.7,   -5.7,  999.0,   -4.5,   -3.7,   -3.1,   -3.6,   -3.8,   -3.5,   -2.2,   -2.1,   -1.1,   -0.4,   -0.1,   -0.2,   -0.4,   -0.6,   -0.4,   -0.0,   -0.3,   -0.1,   -0.1,    0.6,  999.0,    0.4,    0.1,    0.1,    0.0,    0.2,    0.3,    0.6,    1.2,    1.1,    1.3,    1.4,    0.6,    1.0,  999.0,  999.0,  999.0,  999.0,  999.0,  999.0,  999.0,  999.0,  999.0,  999.0,  999.0,  999.0,  999.0,  999.0,  999.0,  999.0,  999.0,  999.0,  999.0
